AFR647 LFPG-MRPV

Flight info

Callsign AFR647
Flight time 11h 12m
Altitude 32000
Route EVX5A EVX DCT RATKA/M080F320 DCT BEDRA DCT 48N020W 46N030W 43N040W/M080F340 39N050W/M080F360 33N060W 25N070W/N0461F380 DCT COUKY DCT VIKRO/N0463F370 UL347 MLY DCT DAGUD/N0465F380 DCT SPP DCT AMUBI DCT TIO
Aircraft B772/H-SDE2E3FGHIJ5LORVWXY/LB1D1

Departure

Time 2026-05-06 12:23
Airport Charles de Gaulle International Airport (LFPG)

Arrival

Time 2026-05-06 23:35
Airport Tobías Bolaños International Airport (MRPV)
Time Latitude Longitude Altitude Speed Heading
2026-05-06 12:05 49.00199 2.59008 366 ft 0 kts 84°
2026-05-06 12:14 49.00197 2.58976 364 ft 4 kts 86°
2026-05-06 12:15 49.00195 2.58935 360 ft 4 kts 86°
2026-05-06 12:15 49.00195 2.58901 363 ft 4 kts 114°
2026-05-06 12:15 49.00211 2.58881 365 ft 4 kts 177°
2026-05-06 12:15 49.00229 2.58880 360 ft 0 kts 175°
2026-05-06 12:18 49.00212 2.58884 365 ft 12 kts 171°
2026-05-06 12:18 49.00100 2.58900 364 ft 17 kts 165°
2026-05-06 12:19 49.00050 2.59046 364 ft 18 kts 91°
2026-05-06 12:19 49.00060 2.59279 367 ft 25 kts 84°
2026-05-06 12:19 49.00079 2.59547 361 ft 25 kts 84°
2026-05-06 12:19 49.00092 2.59815 364 ft 25 kts 85°
2026-05-06 12:20 49.00106 2.60083 361 ft 25 kts 85°
2026-05-06 12:20 48.99999 2.60239 365 ft 25 kts 180°
2026-05-06 12:20 48.99847 2.60128 365 ft 25 kts 237°
2026-05-06 12:20 48.99823 2.60021 359 ft 0 kts 266°
2026-05-06 12:22 48.99820 2.59949 359 ft 35 kts 266°
2026-05-06 12:22 48.99777 2.59113 361 ft 122 kts 265°
2026-05-06 12:22 48.99688 2.57433 363 ft 195 kts 264°
2026-05-06 12:23 48.99533 2.55353 1075 ft 206 kts 266°
2026-05-06 12:23 48.99307 2.53198 2366 ft 207 kts 263°
2026-05-06 12:23 48.99060 2.51025 3280 ft 210 kts 265°
2026-05-06 12:23 48.98998 2.48704 3507 ft 230 kts 276°
2026-05-06 12:24 48.99109 2.46147 3816 ft 251 kts 277°
2026-05-06 12:24 48.99242 2.43438 4466 ft 260 kts 277°
2026-05-06 12:24 48.99367 2.40700 5163 ft 266 kts 276°
2026-05-06 12:24 48.99488 2.37886 6010 ft 267 kts 276°
2026-05-06 12:25 48.99598 2.35043 6732 ft 271 kts 275°
2026-05-06 12:25 48.99699 2.32186 7554 ft 270 kts 275°
2026-05-06 12:25 48.99802 2.29320 8324 ft 272 kts 275°
2026-05-06 12:25 48.99903 2.26450 9126 ft 271 kts 273°
2026-05-06 12:26 48.99997 2.23575 9809 ft 274 kts 272°
2026-05-06 12:26 49.00092 2.20652 10244 ft 284 kts 272°
2026-05-06 12:26 49.00193 2.17541 10387 ft 304 kts 273°
2026-05-06 12:26 49.00266 2.15363 10480 ft 318 kts 272°
2026-05-06 12:27 49.00380 2.11898 10738 ft 334 kts 272°
2026-05-06 12:27 49.00496 2.08323 11325 ft 340 kts 273°
2026-05-06 12:27 49.00611 2.04703 11979 ft 346 kts 272°
2026-05-06 12:27 49.00760 1.99858 13054 ft 346 kts 272°
2026-05-06 12:28 49.00834 1.97371 13498 ft 350 kts 272°
2026-05-06 12:28 49.00944 1.93677 14066 ft 354 kts 272°
2026-05-06 12:28 49.01055 1.89914 14632 ft 361 kts 272°
2026-05-06 12:28 49.01167 1.86050 15127 ft 367 kts 272°
2026-05-06 12:29 49.01280 1.82159 15811 ft 368 kts 272°
2026-05-06 12:29 49.01393 1.78220 16347 ft 374 kts 271°
2026-05-06 12:29 49.01505 1.74250 16973 ft 376 kts 272°
2026-05-06 12:29 49.01617 1.70261 17592 ft 379 kts 271°
2026-05-06 12:30 49.01729 1.66236 18123 ft 383 kts 271°
2026-05-06 12:30 49.01841 1.62144 18570 ft 388 kts 271°
2026-05-06 12:30 49.01952 1.58021 19104 ft 390 kts 272°
2026-05-06 12:30 49.02063 1.53876 19576 ft 393 kts 272°
2026-05-06 12:31 49.02174 1.49691 20027 ft 397 kts 272°
2026-05-06 12:31 49.02283 1.45506 20447 ft 401 kts 272°
2026-05-06 12:31 49.02394 1.41247 20882 ft 404 kts 272°
2026-05-06 12:31 49.02504 1.36952 21327 ft 407 kts 272°
2026-05-06 12:32 49.02615 1.32622 21774 ft 411 kts 272°
2026-05-06 12:32 49.02724 1.28262 22278 ft 413 kts 272°
2026-05-06 12:32 49.02829 1.23880 22768 ft 415 kts 272°
2026-05-06 12:32 49.02936 1.19464 23201 ft 419 kts 272°
2026-05-06 12:33 49.03063 1.15016 23586 ft 422 kts 273°
2026-05-06 12:33 49.03201 1.10534 23946 ft 424 kts 274°
2026-05-06 12:33 49.03345 1.06021 24321 ft 427 kts 274°
2026-05-06 12:33 49.03490 1.01489 24706 ft 429 kts 274°
2026-05-06 12:34 49.03633 0.96939 25101 ft 430 kts 273°
2026-05-06 12:34 49.03773 0.92430 25483 ft 433 kts 273°
2026-05-06 12:34 49.03915 0.87832 25827 ft 435 kts 274°
2026-05-06 12:34 49.04054 0.83220 26262 ft 435 kts 274°
2026-05-06 12:35 49.04191 0.78609 26651 ft 437 kts 272°
2026-05-06 12:35 49.04326 0.73966 26980 ft 440 kts 273°
2026-05-06 12:35 49.04459 0.69284 27296 ft 443 kts 273°
2026-05-06 12:35 49.04591 0.64617 27626 ft 446 kts 274°
2026-05-06 12:36 49.04723 0.59871 27971 ft 448 kts 273°
2026-05-06 12:36 49.04854 0.55114 28328 ft 450 kts 273°
2026-05-06 12:36 49.04982 0.50339 28678 ft 452 kts 274°
2026-05-06 12:36 49.05110 0.45531 28988 ft 455 kts 274°
2026-05-06 12:37 49.05236 0.40707 29354 ft 455 kts 273°
2026-05-06 12:37 49.05361 0.35874 29735 ft 457 kts 273°
2026-05-06 12:37 49.05482 0.31087 30030 ft 459 kts 272°
2026-05-06 12:37 49.05604 0.26206 30267 ft 462 kts 272°
2026-05-06 12:38 49.05724 0.21290 30516 ft 464 kts 273°
2026-05-06 12:38 49.05843 0.16344 30781 ft 466 kts 273°
2026-05-06 12:38 49.05961 0.11401 31042 ft 467 kts 272°
2026-05-06 12:38 49.06076 0.06424 31283 ft 469 kts 273°
2026-05-06 12:39 49.06190 0.01438 31493 ft 472 kts 273°
2026-05-06 12:39 49.06302 -0.03560 31732 ft 473 kts 272°
2026-05-06 12:39 49.06412 -0.08576 31908 ft 475 kts 272°
2026-05-06 12:39 49.06520 -0.13616 31963 ft 476 kts 273°
2026-05-06 12:40 49.06729 -0.23628 31966 ft 472 kts 272°
2026-05-06 12:40 49.06928 -0.33603 32003 ft 470 kts 272°
2026-05-06 12:41 49.07119 -0.43590 31998 ft 471 kts 272°
2026-05-06 12:41 49.07303 -0.53576 31993 ft 471 kts 272°
2026-05-06 12:42 49.07476 -0.63512 31991 ft 471 kts 272°
2026-05-06 12:42 49.07644 -0.73525 31989 ft 471 kts 271°
2026-05-06 12:43 49.07802 -0.83530 31978 ft 472 kts 272°
2026-05-06 12:43 49.07973 -0.93535 31975 ft 471 kts 271°
2026-05-06 12:44 49.08114 -1.03490 31949 ft 466 kts 271°
2026-05-06 12:44 49.08241 -1.13326 31981 ft 464 kts 271°
2026-05-06 12:45 49.08699 -1.23142 31976 ft 469 kts 278°
2026-05-06 12:46 49.10069 -1.37741 31986 ft 463 kts 278°
2026-05-06 12:46 49.10510 -1.42622 32189 ft 465 kts 278°
2026-05-06 12:46 49.10943 -1.47511 32568 ft 463 kts 278°
2026-05-06 12:46 49.11370 -1.52365 32903 ft 462 kts 278°
2026-05-06 12:47 49.11797 -1.57237 33141 ft 463 kts 278°
2026-05-06 12:47 49.12223 -1.62104 33424 ft 463 kts 278°
2026-05-06 12:47 49.12649 -1.66991 33641 ft 464 kts 278°
2026-05-06 12:47 49.13065 -1.71796 33914 ft 464 kts 278°
2026-05-06 12:48 49.13489 -1.76711 33949 ft 467 kts 278°
2026-05-06 12:48 49.14333 -1.86563 33989 ft 468 kts 278°
2026-05-06 12:49 49.15163 -1.96372 33981 ft 461 kts 278°
2026-05-06 12:49 49.15975 -2.06072 33991 ft 459 kts 278°
2026-05-06 12:50 49.16774 -2.15695 33996 ft 459 kts 278°
2026-05-06 12:50 49.17571 -2.25400 33998 ft 460 kts 278°
2026-05-06 12:51 49.18364 -2.35144 33997 ft 462 kts 277°
2026-05-06 12:51 49.19149 -2.44915 33994 ft 464 kts 277°
2026-05-06 12:52 49.19925 -2.54673 33988 ft 465 kts 277°
2026-05-06 12:52 49.20699 -2.64513 33983 ft 465 kts 277°
2026-05-06 12:53 49.21463 -2.74340 33982 ft 464 kts 277°
2026-05-06 12:53 49.22213 -2.84101 33989 ft 458 kts 277°
2026-05-06 12:54 49.22948 -2.93766 33986 ft 461 kts 277°
2026-05-06 12:54 49.23680 -3.03509 33975 ft 459 kts 277°
2026-05-06 12:55 49.24401 -3.13212 33976 ft 458 kts 276°
2026-05-06 12:55 49.25110 -3.22870 33982 ft 456 kts 276°
2026-05-06 12:56 49.25811 -3.32526 33990 ft 456 kts 276°
2026-05-06 12:56 49.26504 -3.42177 33994 ft 458 kts 276°
2026-05-06 12:57 49.27192 -3.51879 33975 ft 459 kts 276°
2026-05-06 12:57 49.27873 -3.61597 33996 ft 459 kts 276°
2026-05-06 12:58 49.28541 -3.71263 33989 ft 459 kts 276°
2026-05-06 12:58 49.29207 -3.81005 34003 ft 460 kts 276°
2026-05-06 12:59 49.29866 -3.90775 33978 ft 461 kts 276°
2026-05-06 12:59 49.30515 -4.00520 33985 ft 458 kts 276°
2026-05-06 13:00 49.31153 -4.10226 33993 ft 456 kts 276°
2026-05-06 13:00 49.31776 -4.19837 33996 ft 455 kts 276°
2026-05-06 13:01 49.32394 -4.29475 34000 ft 454 kts 276°
2026-05-06 13:01 49.33002 -4.39103 33996 ft 453 kts 276°
2026-05-06 13:02 49.33603 -4.48739 33998 ft 453 kts 275°
2026-05-06 13:02 49.34196 -4.58370 34001 ft 454 kts 275°
2026-05-06 13:03 49.34777 -4.67952 34002 ft 454 kts 275°
2026-05-06 13:03 49.35355 -4.77618 34000 ft 455 kts 275°
2026-05-06 13:04 49.35927 -4.87309 34004 ft 456 kts 275°
2026-05-06 13:04 49.36491 -4.97007 34002 ft 456 kts 275°
2026-05-06 13:05 49.37047 -5.06717 34003 ft 457 kts 275°
2026-05-06 13:05 49.37595 -5.16429 34005 ft 457 kts 275°
2026-05-06 13:06 49.38131 -5.26079 34000 ft 457 kts 275°
2026-05-06 13:06 49.38665 -5.35829 33997 ft 457 kts 275°
2026-05-06 13:07 49.39188 -5.45532 34003 ft 456 kts 275°
2026-05-06 13:07 49.39699 -5.55164 34009 ft 455 kts 274°
2026-05-06 13:08 49.40205 -5.64854 33998 ft 454 kts 274°
2026-05-06 13:08 49.40700 -5.74515 34008 ft 453 kts 274°
2026-05-06 13:09 49.41184 -5.84086 34010 ft 452 kts 274°
2026-05-06 13:09 49.41662 -5.93700 34021 ft 451 kts 274°
2026-05-06 13:10 49.42131 -6.03312 34018 ft 450 kts 274°
2026-05-06 13:10 49.42592 -6.12915 34027 ft 450 kts 274°
2026-05-06 13:11 49.43044 -6.22503 34031 ft 450 kts 274°
2026-05-06 13:11 49.43489 -6.32112 34026 ft 451 kts 274°
2026-05-06 13:12 49.43927 -6.41730 34026 ft 451 kts 273°
2026-05-06 13:12 49.44354 -6.51297 34036 ft 452 kts 273°
2026-05-06 13:13 49.44777 -6.60947 34033 ft 453 kts 273°
2026-05-06 13:13 49.45193 -6.70607 34031 ft 453 kts 273°
2026-05-06 13:14 49.45600 -6.80276 34033 ft 453 kts 273°
2026-05-06 13:14 49.46000 -6.89947 34039 ft 453 kts 273°
2026-05-06 13:15 49.46391 -6.99601 34034 ft 453 kts 273°
2026-05-06 13:15 49.46774 -7.09250 34037 ft 452 kts 273°
2026-05-06 13:16 49.47086 -7.17272 34033 ft 452 kts 272°
2026-05-06 13:16 49.47513 -7.28490 34038 ft 451 kts 272°
2026-05-06 13:17 49.47812 -7.36513 34044 ft 451 kts 272°
2026-05-06 13:17 49.48163 -7.46141 34038 ft 451 kts 272°
2026-05-06 13:18 49.48507 -7.55767 34031 ft 451 kts 272°
2026-05-06 13:18 49.48843 -7.65386 34049 ft 450 kts 272°
2026-05-06 13:19 49.49172 -7.74996 34038 ft 450 kts 272°
2026-05-06 13:19 49.49495 -7.84624 34036 ft 450 kts 272°
2026-05-06 13:20 49.49810 -7.94249 34032 ft 449 kts 272°
2026-05-06 13:20 49.49907 -8.03785 34042 ft 448 kts 265°
2026-05-06 13:21 49.49468 -8.13342 34037 ft 448 kts 265°
2026-05-06 13:21 49.49025 -8.22892 34037 ft 447 kts 265°
2026-05-06 13:22 49.48598 -8.32454 34044 ft 447 kts 265°
2026-05-06 13:22 49.48177 -8.42002 34040 ft 447 kts 265°
2026-05-06 13:23 49.47751 -8.51543 34042 ft 447 kts 265°
2026-05-06 13:23 49.47317 -8.61092 34042 ft 448 kts 265°
2026-05-06 13:24 49.46874 -8.70651 34041 ft 448 kts 265°
2026-05-06 13:24 49.46425 -8.80149 34048 ft 448 kts 265°
2026-05-06 13:25 49.45965 -8.89716 34050 ft 449 kts 265°
2026-05-06 13:25 49.45497 -8.99285 34046 ft 449 kts 264°
2026-05-06 13:26 49.45020 -9.08877 34054 ft 450 kts 264°
2026-05-06 13:26 49.44534 -9.18480 34050 ft 450 kts 264°
2026-05-06 13:27 49.44041 -9.28082 34048 ft 450 kts 264°
2026-05-06 13:27 49.43540 -9.37677 34048 ft 451 kts 264°
2026-05-06 13:28 49.43033 -9.47217 34045 ft 450 kts 264°
2026-05-06 13:28 49.42516 -9.56805 34053 ft 450 kts 264°
2026-05-06 13:29 49.41991 -9.66388 34055 ft 450 kts 264°
2026-05-06 13:29 49.41458 -9.75987 34055 ft 450 kts 264°
2026-05-06 13:30 49.40917 -9.85561 34051 ft 450 kts 264°
2026-05-06 13:30 49.40369 -9.95142 34060 ft 450 kts 264°
2026-05-06 13:31 49.39814 -10.04677 34064 ft 451 kts 264°
2026-05-06 13:31 49.39247 -10.14292 34059 ft 451 kts 264°
2026-05-06 13:32 49.38673 -10.23897 34059 ft 452 kts 263°
2026-05-06 13:32 49.38090 -10.33510 34060 ft 453 kts 264°
2026-05-06 13:33 49.37499 -10.43132 34064 ft 453 kts 263°
2026-05-06 13:33 49.36898 -10.52767 34062 ft 454 kts 263°
2026-05-06 13:34 49.36291 -10.62383 34065 ft 455 kts 263°
2026-05-06 13:34 49.35672 -10.72050 34061 ft 455 kts 263°
2026-05-06 13:35 49.35044 -10.81726 34061 ft 456 kts 263°
2026-05-06 13:35 49.34411 -10.91366 34069 ft 457 kts 263°
2026-05-06 13:36 49.33764 -11.01080 34072 ft 458 kts 263°
2026-05-06 13:36 49.33109 -11.10802 34069 ft 459 kts 263°
2026-05-06 13:37 49.32443 -11.20541 34071 ft 459 kts 263°
2026-05-06 13:37 49.31769 -11.30299 34072 ft 460 kts 263°
2026-05-06 13:38 49.31089 -11.40012 34072 ft 461 kts 263°
2026-05-06 13:38 49.30396 -11.49785 34076 ft 462 kts 263°
2026-05-06 13:39 49.29694 -11.59573 34068 ft 462 kts 263°
2026-05-06 13:39 49.28984 -11.69363 34068 ft 462 kts 263°
2026-05-06 13:40 49.28268 -11.79111 34072 ft 463 kts 263°
2026-05-06 13:40 49.27539 -11.88910 34076 ft 463 kts 263°
2026-05-06 13:41 49.26802 -11.98722 34069 ft 463 kts 263°
2026-05-06 13:41 49.26057 -12.08515 34070 ft 464 kts 263°
2026-05-06 13:42 49.25301 -12.18336 34074 ft 465 kts 263°
2026-05-06 13:42 49.24541 -12.28108 34078 ft 466 kts 263°
2026-05-06 13:43 49.23766 -12.37961 34078 ft 467 kts 263°
2026-05-06 13:43 49.22982 -12.47830 34079 ft 468 kts 263°
2026-05-06 13:44 49.22199 -12.57741 34104 ft 472 kts 263°
2026-05-06 13:44 49.21791 -12.62758 34234 ft 475 kts 263°
2026-05-06 13:44 49.21377 -12.67765 34456 ft 474 kts 263°
2026-05-06 13:44 49.20961 -12.72767 34737 ft 473 kts 263°
2026-05-06 13:45 49.20547 -12.77755 35007 ft 472 kts 263°
2026-05-06 13:45 49.19719 -12.87700 35436 ft 472 kts 263°
2026-05-06 13:45 49.19303 -12.92674 35677 ft 471 kts 263°
2026-05-06 13:46 49.18885 -12.97642 35839 ft 472 kts 263°
2026-05-06 13:46 49.18467 -13.02581 35976 ft 473 kts 263°
2026-05-06 13:46 49.17614 -13.12600 36066 ft 476 kts 263°
2026-05-06 13:47 49.16751 -13.22613 36072 ft 473 kts 263°
2026-05-06 13:47 49.15885 -13.32550 36079 ft 470 kts 263°
2026-05-06 13:48 49.15022 -13.42353 36081 ft 468 kts 263°
2026-05-06 13:48 49.14147 -13.52200 36088 ft 467 kts 263°
2026-05-06 13:49 49.13264 -13.62048 36092 ft 468 kts 263°
2026-05-06 13:49 49.12369 -13.71933 36093 ft 470 kts 263°
2026-05-06 13:50 49.11464 -13.81829 36091 ft 471 kts 263°
2026-05-06 13:50 49.10548 -13.91750 36094 ft 473 kts 263°
2026-05-06 13:51 49.09626 -14.01639 36092 ft 474 kts 263°
2026-05-06 13:51 49.08688 -14.11607 36095 ft 475 kts 263°
2026-05-06 13:52 49.07739 -14.21587 36095 ft 475 kts 263°
2026-05-06 13:52 49.06781 -14.31576 36095 ft 475 kts 263°
2026-05-06 13:53 49.05816 -14.41545 36099 ft 475 kts 263°
2026-05-06 13:53 49.04848 -14.51468 36097 ft 475 kts 263°
2026-05-06 13:54 49.03867 -14.61424 36103 ft 475 kts 263°
2026-05-06 13:54 49.02877 -14.71387 36090 ft 475 kts 263°
2026-05-06 13:55 49.01882 -14.81333 36103 ft 474 kts 263°
2026-05-06 13:55 49.00886 -14.91234 36104 ft 475 kts 263°
2026-05-06 13:56 48.99824 -15.01169 36107 ft 476 kts 259°
2026-05-06 13:56 48.98138 -15.10931 36089 ft 477 kts 257°
2026-05-06 13:57 48.96371 -15.20605 36103 ft 477 kts 257°
2026-05-06 13:57 48.94612 -15.30360 36115 ft 476 kts 257°
2026-05-06 13:58 48.92874 -15.40084 36107 ft 476 kts 257°
2026-05-06 13:58 48.91144 -15.49749 36111 ft 476 kts 257°
2026-05-06 13:59 48.89394 -15.59469 36102 ft 475 kts 257°
2026-05-06 13:59 48.87641 -15.69154 36110 ft 475 kts 257°
2026-05-06 14:00 48.85894 -15.78753 36119 ft 474 kts 257°
2026-05-06 14:00 48.84127 -15.88407 36125 ft 474 kts 257°
2026-05-06 14:01 48.82351 -15.98061 36113 ft 473 kts 257°
2026-05-06 14:01 48.80573 -16.07675 36114 ft 473 kts 257°
2026-05-06 14:02 48.78787 -16.17283 36113 ft 473 kts 257°
2026-05-06 14:02 48.77006 -16.26814 36116 ft 472 kts 257°
2026-05-06 14:03 48.75206 -16.36396 36097 ft 472 kts 257°
2026-05-06 14:03 48.73404 -16.45944 36111 ft 471 kts 257°
2026-05-06 14:04 48.71902 -16.53861 36118 ft 470 kts 257°
2026-05-06 14:04 48.69793 -16.64926 36116 ft 470 kts 257°
2026-05-06 14:05 48.68268 -16.72883 36115 ft 469 kts 257°
2026-05-06 14:05 48.66455 -16.82306 36119 ft 469 kts 257°
2026-05-06 14:06 48.64625 -16.91770 36121 ft 468 kts 257°
2026-05-06 14:06 48.62785 -17.01234 36122 ft 468 kts 257°
2026-05-06 14:07 48.60939 -17.10683 36124 ft 469 kts 257°
2026-05-06 14:07 48.59087 -17.20125 36115 ft 468 kts 256°
2026-05-06 14:08 48.57228 -17.29547 36118 ft 467 kts 256°
2026-05-06 14:08 48.55374 -17.38896 36123 ft 467 kts 256°
2026-05-06 14:09 48.53504 -17.48286 36122 ft 467 kts 256°
2026-05-06 14:09 48.51627 -17.57665 36106 ft 466 kts 256°
2026-05-06 14:10 48.49749 -17.67005 36114 ft 464 kts 256°
2026-05-06 14:10 48.47869 -17.76311 36122 ft 463 kts 256°
2026-05-06 14:11 48.46001 -17.85509 36119 ft 461 kts 256°
2026-05-06 14:11 48.44115 -17.94758 36121 ft 461 kts 256°
2026-05-06 14:12 48.42225 -18.03984 36120 ft 460 kts 256°
2026-05-06 14:12 48.40329 -18.13194 36123 ft 460 kts 255°
2026-05-06 14:13 48.38424 -18.22409 36123 ft 461 kts 255°
2026-05-06 14:13 48.36523 -18.31561 36125 ft 461 kts 255°
2026-05-06 14:14 48.34600 -18.40778 36116 ft 461 kts 255°
2026-05-06 14:14 48.32668 -18.49990 36123 ft 461 kts 255°
2026-05-06 14:15 48.30744 -18.59129 36122 ft 461 kts 255°
2026-05-06 14:15 48.28801 -18.68309 36122 ft 461 kts 255°
2026-05-06 14:16 48.26855 -18.77469 36110 ft 461 kts 254°
2026-05-06 14:16 48.24902 -18.86621 36120 ft 460 kts 254°
2026-05-06 14:17 48.22942 -18.95759 36119 ft 460 kts 254°
2026-05-06 14:17 48.20978 -19.04879 36119 ft 459 kts 254°
2026-05-06 14:18 48.19006 -19.13995 36122 ft 459 kts 254°
2026-05-06 14:18 48.17042 -19.23038 36122 ft 458 kts 254°
2026-05-06 14:19 48.15063 -19.32105 36118 ft 457 kts 253°
2026-05-06 14:19 48.13081 -19.41152 36119 ft 456 kts 253°
2026-05-06 14:20 48.11094 -19.50180 36123 ft 456 kts 253°
2026-05-06 14:20 48.09118 -19.59125 36123 ft 455 kts 253°
2026-05-06 14:21 48.07125 -19.68109 36119 ft 454 kts 253°
2026-05-06 14:21 48.05133 -19.77055 36119 ft 453 kts 253°
2026-05-06 14:22 48.03138 -19.85990 36118 ft 452 kts 253°
2026-05-06 14:22 48.01150 -19.94856 36128 ft 452 kts 254°
2026-05-06 14:23 47.99359 -20.03806 36127 ft 446 kts 260°
2026-05-06 14:23 47.98009 -20.12849 36131 ft 445 kts 260°
2026-05-06 14:24 47.96660 -20.21804 36126 ft 444 kts 260°
2026-05-06 14:24 47.95293 -20.30783 36126 ft 443 kts 260°
2026-05-06 14:25 47.93918 -20.39748 36126 ft 441 kts 260°
2026-05-06 14:25 47.92552 -20.48601 36132 ft 440 kts 260°
2026-05-06 14:26 47.91172 -20.57490 36133 ft 439 kts 260°
2026-05-06 14:26 47.89790 -20.66348 36135 ft 438 kts 260°
2026-05-06 14:27 47.88403 -20.75190 36130 ft 438 kts 260°
2026-05-06 14:27 47.87012 -20.84012 36130 ft 436 kts 260°
2026-05-06 14:28 47.85627 -20.92746 36132 ft 435 kts 260°
2026-05-06 14:28 47.84228 -21.01515 36129 ft 435 kts 260°
2026-05-06 14:29 47.82826 -21.10263 36127 ft 434 kts 260°
2026-05-06 14:29 47.81420 -21.18990 36131 ft 433 kts 260°
2026-05-06 14:30 47.80019 -21.27644 36125 ft 432 kts 259°
2026-05-06 14:30 47.78606 -21.36326 36125 ft 431 kts 259°
2026-05-06 14:31 47.77189 -21.44981 36127 ft 430 kts 259°
2026-05-06 14:31 47.75766 -21.53632 36135 ft 430 kts 259°
2026-05-06 14:32 47.74341 -21.62257 36131 ft 430 kts 259°
2026-05-06 14:32 47.72916 -21.70831 36127 ft 430 kts 259°
2026-05-06 14:33 47.71476 -21.79458 36132 ft 430 kts 259°
2026-05-06 14:33 47.70028 -21.88085 36124 ft 430 kts 259°
2026-05-06 14:34 47.68572 -21.96713 36125 ft 431 kts 259°
2026-05-06 14:34 47.67111 -22.05332 36124 ft 431 kts 259°
2026-05-06 14:35 47.65649 -22.13915 36122 ft 431 kts 258°
2026-05-06 14:35 47.64169 -22.22558 36121 ft 432 kts 258°
2026-05-06 14:36 47.62685 -22.31183 36124 ft 432 kts 258°
2026-05-06 14:36 47.61194 -22.39809 36129 ft 431 kts 258°
2026-05-06 14:37 47.59708 -22.48362 36124 ft 431 kts 258°
2026-05-06 14:37 47.58205 -22.56967 36113 ft 431 kts 258°
2026-05-06 14:38 47.56696 -22.65567 36121 ft 431 kts 258°
2026-05-06 14:38 47.55183 -22.74153 36123 ft 430 kts 257°
2026-05-06 14:39 47.53674 -22.82673 36113 ft 430 kts 257°
2026-05-06 14:39 47.52150 -22.91231 36113 ft 430 kts 257°
2026-05-06 14:40 47.50622 -22.99778 36119 ft 430 kts 257°
2026-05-06 14:40 47.49086 -23.08322 36118 ft 429 kts 257°
2026-05-06 14:41 47.47546 -23.16853 36112 ft 429 kts 257°
2026-05-06 14:41 47.45999 -23.25385 36111 ft 430 kts 256°
2026-05-06 14:42 47.44455 -23.33859 36109 ft 430 kts 256°
2026-05-06 14:42 47.42894 -23.42385 36109 ft 430 kts 256°
2026-05-06 14:43 47.41324 -23.50922 36114 ft 431 kts 256°
2026-05-06 14:43 47.39744 -23.59473 36103 ft 431 kts 256°
2026-05-06 14:44 47.38168 -23.67964 36110 ft 431 kts 256°
2026-05-06 14:45 47.35775 -23.80778 36100 ft 432 kts 256°
2026-05-06 14:45 47.34171 -23.89324 36104 ft 432 kts 255°
2026-05-06 14:46 47.32560 -23.97864 36095 ft 432 kts 255°
2026-05-06 14:46 47.30940 -24.06412 36093 ft 432 kts 255°
2026-05-06 14:47 47.29317 -24.14940 36097 ft 432 kts 255°
2026-05-06 14:47 47.27690 -24.23448 36093 ft 431 kts 255°
2026-05-06 14:48 47.26068 -24.31898 36097 ft 431 kts 255°
2026-05-06 14:48 47.24431 -24.40385 36089 ft 431 kts 255°
2026-05-06 14:49 47.22787 -24.48865 36093 ft 430 kts 255°
2026-05-06 14:49 47.21138 -24.57339 36083 ft 430 kts 255°
2026-05-06 14:50 47.19496 -24.65741 36083 ft 430 kts 255°
2026-05-06 14:50 47.17835 -24.74203 36078 ft 430 kts 255°
2026-05-06 14:51 47.16166 -24.82664 36074 ft 430 kts 255°
2026-05-06 14:51 47.14499 -24.91080 36077 ft 428 kts 254°
2026-05-06 14:52 47.12839 -24.99425 36074 ft 428 kts 254°
2026-05-06 14:52 47.11167 -25.07796 36076 ft 427 kts 254°
2026-05-06 14:53 47.09490 -25.16158 36075 ft 426 kts 254°
2026-05-06 14:53 47.08095 -25.23085 36077 ft 426 kts 254°
2026-05-06 14:54 47.06413 -25.31406 36076 ft 425 kts 254°
2026-05-06 14:54 47.04726 -25.39715 36075 ft 425 kts 254°
2026-05-06 14:55 47.03032 -25.48023 36084 ft 425 kts 254°
2026-05-06 14:55 47.01334 -25.56320 36074 ft 425 kts 253°
2026-05-06 14:56 46.99631 -25.64603 36075 ft 424 kts 253°
2026-05-06 14:56 46.97921 -25.72887 36078 ft 424 kts 253°
2026-05-06 14:57 46.96207 -25.81152 36075 ft 424 kts 253°
2026-05-06 14:57 46.94484 -25.89432 36068 ft 424 kts 253°
2026-05-06 14:58 46.92770 -25.97634 36069 ft 424 kts 253°
2026-05-06 14:58 46.91033 -26.05910 36066 ft 424 kts 253°
2026-05-06 14:59 46.89297 -26.14151 36066 ft 424 kts 253°
2026-05-06 14:59 46.87564 -26.22342 36068 ft 424 kts 253°
2026-05-06 15:00 46.85818 -26.30566 36059 ft 423 kts 253°
2026-05-06 15:00 46.84069 -26.38766 36060 ft 422 kts 253°
2026-05-06 15:01 46.82314 -26.46966 36059 ft 422 kts 253°
2026-05-06 15:01 46.80556 -26.55143 36055 ft 422 kts 253°
2026-05-06 15:02 46.78805 -26.63255 36051 ft 421 kts 252°
2026-05-06 15:02 46.77040 -26.71402 36041 ft 420 kts 252°
2026-05-06 15:03 46.75273 -26.79526 36040 ft 420 kts 252°
2026-05-06 15:03 46.73499 -26.87647 36040 ft 420 kts 252°
2026-05-06 15:04 46.71722 -26.95757 36023 ft 420 kts 252°
2026-05-06 15:04 46.69951 -27.03803 36035 ft 419 kts 252°
2026-05-06 15:05 46.68167 -27.11900 36010 ft 420 kts 252°
2026-05-06 15:05 46.66383 -27.20004 36028 ft 420 kts 252°
2026-05-06 15:06 46.64584 -27.28096 36019 ft 420 kts 252°
2026-05-06 15:06 46.62774 -27.36192 36019 ft 421 kts 252°
2026-05-06 15:07 46.60963 -27.44256 36012 ft 421 kts 252°
2026-05-06 15:07 46.59137 -27.52366 36014 ft 422 kts 252°
2026-05-06 15:08 46.57299 -27.60494 36015 ft 424 kts 251°
2026-05-06 15:08 46.55450 -27.68650 35969 ft 425 kts 251°
2026-05-06 15:09 46.53599 -27.76772 35990 ft 422 kts 251°
2026-05-06 15:09 46.51764 -27.84798 35993 ft 420 kts 251°
2026-05-06 15:10 46.49916 -27.92851 35985 ft 419 kts 251°
2026-05-06 15:10 46.48074 -28.00849 35995 ft 418 kts 251°
2026-05-06 15:11 46.46223 -28.08854 35979 ft 418 kts 251°
2026-05-06 15:11 46.44365 -28.16861 35994 ft 419 kts 251°
2026-05-06 15:12 46.42509 -28.24833 35989 ft 420 kts 251°
2026-05-06 15:12 46.40628 -28.32878 35993 ft 421 kts 251°
2026-05-06 15:13 46.38739 -28.40931 35996 ft 422 kts 251°
2026-05-06 15:13 46.36852 -28.48944 35996 ft 423 kts 250°
2026-05-06 15:14 46.34940 -28.57034 36008 ft 423 kts 250°
2026-05-06 15:14 46.33027 -28.65102 36011 ft 424 kts 250°
2026-05-06 15:15 46.31121 -28.73105 36017 ft 423 kts 250°
2026-05-06 15:15 46.29197 -28.81159 36018 ft 424 kts 250°
2026-05-06 15:16 46.27262 -28.89227 36028 ft 425 kts 250°
2026-05-06 15:16 46.25319 -28.97301 36030 ft 426 kts 250°
2026-05-06 15:17 46.23363 -29.05396 36036 ft 426 kts 250°
2026-05-06 15:17 46.21400 -29.13498 36034 ft 427 kts 250°
2026-05-06 15:18 46.19429 -29.21596 36038 ft 428 kts 250°
2026-05-06 15:18 46.17459 -29.29664 36044 ft 429 kts 250°
2026-05-06 15:19 46.15464 -29.37805 36038 ft 430 kts 250°
2026-05-06 15:19 46.13460 -29.45957 36045 ft 431 kts 250°
2026-05-06 15:20 46.11462 -29.54052 36051 ft 431 kts 250°
2026-05-06 15:20 46.09441 -29.62214 36053 ft 431 kts 250°
2026-05-06 15:21 46.07433 -29.70292 36046 ft 431 kts 250°
2026-05-06 15:21 46.05409 -29.78411 36054 ft 430 kts 250°
2026-05-06 15:22 46.03381 -29.86520 36055 ft 430 kts 250°
2026-05-06 15:22 46.01348 -29.94629 36061 ft 431 kts 250°
2026-05-06 15:23 45.99308 -30.02744 36074 ft 431 kts 250°
2026-05-06 15:23 45.97315 -30.10885 36078 ft 432 kts 251°
2026-05-06 15:24 45.95329 -30.19049 36077 ft 433 kts 251°
2026-05-06 15:24 45.93344 -30.27167 36075 ft 434 kts 251°
2026-05-06 15:25 45.91333 -30.35354 36089 ft 435 kts 251°
2026-05-06 15:25 45.89308 -30.43556 36089 ft 436 kts 251°
2026-05-06 15:26 45.87288 -30.51712 36092 ft 436 kts 251°
2026-05-06 15:26 45.85244 -30.59931 36081 ft 437 kts 251°
2026-05-06 15:27 45.83194 -30.68146 36097 ft 437 kts 251°
2026-05-06 15:27 45.81137 -30.76361 36097 ft 438 kts 251°
2026-05-06 15:28 45.79068 -30.84591 36114 ft 438 kts 251°
2026-05-06 15:28 45.77004 -30.92774 36106 ft 439 kts 251°
2026-05-06 15:29 45.74924 -31.00989 36108 ft 439 kts 251°
2026-05-06 15:29 45.72835 -31.09215 36111 ft 439 kts 251°
2026-05-06 15:30 45.70739 -31.17434 36115 ft 439 kts 251°
2026-05-06 15:30 45.68636 -31.25654 36123 ft 439 kts 251°
2026-05-06 15:31 45.66540 -31.33817 36125 ft 440 kts 251°
2026-05-06 15:31 45.64423 -31.42029 36129 ft 440 kts 251°
2026-05-06 15:32 45.61231 -31.54364 36130 ft 441 kts 251°
2026-05-06 15:32 45.59095 -31.62581 36123 ft 442 kts 251°
2026-05-06 15:33 45.56946 -31.70815 36133 ft 442 kts 251°
2026-05-06 15:33 45.54807 -31.78986 36140 ft 443 kts 251°
2026-05-06 15:34 45.52645 -31.87216 36142 ft 443 kts 251°
2026-05-06 15:34 45.50468 -31.95474 36137 ft 443 kts 251°
2026-05-06 15:35 45.48305 -32.03649 36144 ft 444 kts 251°
2026-05-06 15:35 45.46116 -32.11897 36151 ft 444 kts 251°
2026-05-06 15:36 45.43920 -32.20141 36163 ft 445 kts 251°
2026-05-06 15:36 45.41710 -32.28407 36157 ft 447 kts 251°
2026-05-06 15:37 45.39505 -32.36625 36148 ft 448 kts 251°
2026-05-06 15:37 45.37273 -32.44916 36164 ft 448 kts 251°
2026-05-06 15:38 45.35033 -32.53209 36161 ft 449 kts 251°
2026-05-06 15:38 45.32785 -32.61500 36163 ft 450 kts 251°
2026-05-06 15:39 45.30528 -32.69798 36153 ft 450 kts 252°
2026-05-06 15:39 45.28279 -32.78037 36163 ft 450 kts 252°
2026-05-06 15:40 45.26008 -32.86330 36164 ft 450 kts 251°
2026-05-06 15:40 45.23748 -32.94554 36173 ft 450 kts 251°
2026-05-06 15:41 45.21469 -33.02816 36169 ft 449 kts 251°
2026-05-06 15:41 45.19555 -33.09737 36171 ft 449 kts 251°
2026-05-06 15:42 45.17278 -33.17940 36170 ft 449 kts 251°
2026-05-06 15:42 45.14985 -33.26177 36172 ft 449 kts 251°
2026-05-06 15:43 45.12684 -33.34413 36162 ft 449 kts 251°
2026-05-06 15:43 45.10378 -33.42641 36172 ft 449 kts 251°
2026-05-06 15:44 45.08081 -33.50804 36189 ft 449 kts 251°
2026-05-06 15:44 45.05763 -33.59018 36188 ft 450 kts 251°
2026-05-06 15:45 45.03436 -33.67239 36173 ft 450 kts 252°
2026-05-06 15:45 45.01102 -33.75451 36188 ft 450 kts 252°
2026-05-06 15:46 44.98761 -33.83666 36191 ft 451 kts 252°
2026-05-06 15:46 44.96411 -33.91883 36197 ft 451 kts 251°
2026-05-06 15:47 44.94053 -34.00102 36189 ft 452 kts 252°
2026-05-06 15:47 44.91688 -34.08315 36201 ft 452 kts 252°
2026-05-06 15:48 44.89328 -34.16486 36207 ft 452 kts 252°
2026-05-06 15:48 44.86946 -34.24704 36205 ft 452 kts 252°
2026-05-06 15:49 44.84559 -34.32913 36191 ft 453 kts 252°
2026-05-06 15:49 44.82166 -34.41117 36206 ft 452 kts 252°
2026-05-06 15:50 44.79768 -34.49308 36214 ft 452 kts 252°
2026-05-06 15:50 44.77363 -34.57497 36217 ft 453 kts 252°
2026-05-06 15:51 44.74954 -34.65675 36196 ft 453 kts 252°
2026-05-06 15:51 44.72534 -34.73864 36220 ft 453 kts 252°
2026-05-06 15:52 44.70123 -34.81992 36227 ft 453 kts 252°
2026-05-06 15:52 44.67692 -34.90167 36226 ft 453 kts 252°
2026-05-06 15:53 44.65252 -34.98341 36215 ft 453 kts 253°
2026-05-06 15:53 44.62809 -35.06502 36233 ft 453 kts 252°
2026-05-06 15:54 44.60357 -35.14664 36240 ft 453 kts 252°
2026-05-06 15:54 44.57902 -35.22811 36242 ft 453 kts 252°
2026-05-06 15:55 44.55438 -35.30962 36229 ft 453 kts 253°
2026-05-06 15:55 44.52986 -35.39045 36245 ft 453 kts 253°
2026-05-06 15:56 44.50512 -35.47176 36249 ft 453 kts 253°
2026-05-06 15:56 44.48034 -35.55298 36253 ft 453 kts 252°
2026-05-06 15:57 44.45551 -35.63407 36235 ft 453 kts 253°
2026-05-06 15:57 44.43064 -35.71506 36258 ft 453 kts 253°
2026-05-06 15:58 44.40585 -35.79549 36260 ft 453 kts 253°
2026-05-06 15:58 44.38090 -35.87624 36270 ft 453 kts 253°
2026-05-06 15:59 44.35581 -35.95716 36238 ft 453 kts 253°
2026-05-06 15:59 44.33070 -36.03788 36262 ft 453 kts 253°
2026-05-06 16:00 44.30553 -36.11856 36269 ft 453 kts 253°
2026-05-06 16:00 44.28043 -36.19877 36274 ft 453 kts 253°
2026-05-06 16:01 44.25509 -36.27950 36269 ft 454 kts 252°
2026-05-06 16:01 44.22969 -36.36018 36275 ft 454 kts 252°
2026-05-06 16:02 44.20423 -36.44077 36275 ft 454 kts 252°
2026-05-06 16:02 44.17888 -36.52078 36275 ft 454 kts 252°
2026-05-06 16:03 44.15329 -36.60128 36270 ft 454 kts 252°
2026-05-06 16:03 44.12767 -36.68164 36277 ft 453 kts 252°
2026-05-06 16:04 44.10202 -36.76185 36285 ft 453 kts 252°
2026-05-06 16:04 44.07644 -36.84161 36291 ft 453 kts 252°
2026-05-06 16:05 44.05069 -36.92164 36282 ft 453 kts 252°
2026-05-06 16:05 44.02489 -37.00158 36288 ft 452 kts 252°
2026-05-06 16:06 43.99907 -37.08137 36297 ft 452 kts 252°
2026-05-06 16:06 43.97335 -37.16058 36296 ft 452 kts 252°
2026-05-06 16:07 43.94747 -37.24007 36295 ft 451 kts 252°
2026-05-06 16:07 43.92152 -37.31949 36303 ft 451 kts 252°
2026-05-06 16:08 43.89555 -37.39880 36304 ft 451 kts 252°
2026-05-06 16:08 43.86968 -37.47753 36307 ft 451 kts 252°
2026-05-06 16:09 43.84359 -37.55670 36307 ft 450 kts 252°
2026-05-06 16:09 43.81748 -37.63569 36311 ft 450 kts 252°
2026-05-06 16:10 43.79135 -37.71452 36311 ft 450 kts 252°
2026-05-06 16:10 43.76516 -37.79331 36315 ft 450 kts 252°
2026-05-06 16:11 43.73909 -37.87148 36312 ft 450 kts 252°
2026-05-06 16:11 43.71285 -37.94995 36315 ft 449 kts 252°
2026-05-06 16:12 43.68654 -38.02841 36318 ft 449 kts 252°
2026-05-06 16:12 43.66033 -38.10631 36298 ft 449 kts 252°
2026-05-06 16:13 43.63396 -38.18448 36320 ft 448 kts 252°
2026-05-06 16:13 43.60759 -38.26244 36330 ft 448 kts 252°
2026-05-06 16:14 43.58120 -38.34022 36328 ft 448 kts 252°
2026-05-06 16:14 43.55469 -38.41812 36305 ft 448 kts 252°
2026-05-06 16:15 43.52821 -38.49572 36329 ft 447 kts 252°
2026-05-06 16:15 43.50169 -38.57321 36340 ft 447 kts 252°
2026-05-06 16:16 43.47534 -38.64999 36342 ft 447 kts 252°
2026-05-06 16:16 43.44871 -38.72737 36317 ft 446 kts 252°
2026-05-06 16:17 43.42209 -38.80451 36336 ft 446 kts 252°
2026-05-06 16:17 43.39546 -38.88145 36343 ft 445 kts 252°
2026-05-06 16:18 43.36877 -38.95835 36348 ft 445 kts 251°
2026-05-06 16:18 43.34216 -39.03480 36331 ft 445 kts 251°
2026-05-06 16:19 43.31540 -39.11146 36346 ft 445 kts 251°
2026-05-06 16:19 43.28853 -39.18824 36352 ft 445 kts 251°
2026-05-06 16:20 43.26185 -39.26426 36356 ft 445 kts 251°
2026-05-06 16:20 43.23492 -39.34079 36360 ft 445 kts 251°
2026-05-06 16:21 43.20795 -39.41723 36360 ft 445 kts 251°
2026-05-06 16:21 43.18109 -39.49314 36368 ft 445 kts 251°
2026-05-06 16:22 43.15401 -39.56944 36363 ft 445 kts 251°
2026-05-06 16:22 43.12688 -39.64570 36359 ft 444 kts 251°
2026-05-06 16:23 43.09991 -39.72133 36369 ft 444 kts 251°
2026-05-06 16:23 43.07278 -39.79717 36369 ft 443 kts 251°
2026-05-06 16:24 43.04566 -39.87284 36373 ft 443 kts 251°
2026-05-06 16:24 43.01848 -39.94855 36374 ft 442 kts 251°
2026-05-06 16:25 42.99150 -40.02384 36374 ft 440 kts 252°
2026-05-06 16:25 42.96586 -40.09966 36380 ft 439 kts 252°
2026-05-06 16:26 42.94063 -40.17550 36380 ft 439 kts 252°
2026-05-06 16:26 42.91533 -40.25107 36379 ft 438 kts 252°
2026-05-06 16:27 42.88991 -40.32643 36391 ft 437 kts 252°
2026-05-06 16:27 42.86451 -40.40139 36389 ft 437 kts 252°
2026-05-06 16:28 42.83894 -40.47664 36362 ft 437 kts 252°
2026-05-06 16:28 42.81337 -40.55166 36391 ft 437 kts 252°
2026-05-06 16:29 42.79209 -40.61393 36390 ft 436 kts 252°
2026-05-06 16:29 42.76639 -40.68897 36399 ft 436 kts 252°
2026-05-06 16:30 42.74503 -40.75119 36402 ft 436 kts 252°
2026-05-06 16:30 42.71510 -40.83812 36406 ft 436 kts 251°
2026-05-06 16:31 42.68931 -40.91281 36409 ft 436 kts 251°
2026-05-06 16:31 42.66348 -40.98742 36412 ft 435 kts 251°
2026-05-06 16:32 42.63781 -41.06135 36376 ft 435 kts 251°
2026-05-06 16:32 42.61193 -41.13570 36410 ft 434 kts 251°
2026-05-06 16:33 42.58612 -41.20964 36416 ft 433 kts 251°
2026-05-06 16:34 42.54731 -41.32047 36418 ft 433 kts 251°
2026-05-06 16:34 42.52141 -41.39417 36411 ft 432 kts 251°
2026-05-06 16:35 42.49568 -41.46720 36422 ft 432 kts 251°
2026-05-06 16:35 42.46973 -41.54067 36420 ft 431 kts 251°
2026-05-06 16:36 42.44377 -41.61399 36427 ft 431 kts 251°
2026-05-06 16:36 42.41779 -41.68717 36420 ft 431 kts 250°
2026-05-06 16:37 42.39191 -41.75985 36427 ft 430 kts 250°
2026-05-06 16:37 42.36584 -41.83287 36435 ft 430 kts 250°
2026-05-06 16:38 42.33977 -41.90572 36431 ft 430 kts 250°
2026-05-06 16:38 42.31369 -41.97839 36434 ft 428 kts 250°
2026-05-06 16:39 42.28767 -42.05073 36431 ft 427 kts 250°
2026-05-06 16:39 42.26182 -42.12241 36438 ft 426 kts 250°
2026-05-06 16:40 42.23580 -42.19438 36429 ft 426 kts 250°
2026-05-06 16:40 42.20977 -42.26619 36436 ft 425 kts 250°
2026-05-06 16:41 42.18388 -42.33743 36436 ft 425 kts 250°
2026-05-06 16:41 42.15783 -42.40894 36444 ft 424 kts 250°
2026-05-06 16:42 42.13168 -42.48053 36450 ft 425 kts 250°
2026-05-06 16:42 42.10559 -42.55177 36437 ft 423 kts 250°
2026-05-06 16:43 42.07953 -42.62275 36445 ft 422 kts 250°
2026-05-06 16:43 42.05359 -42.69324 36446 ft 422 kts 250°
2026-05-06 16:44 42.02753 -42.76390 36424 ft 421 kts 250°
2026-05-06 16:44 42.00148 -42.83430 36441 ft 419 kts 250°
2026-05-06 16:45 41.97553 -42.90430 36450 ft 418 kts 250°
2026-05-06 16:45 41.94958 -42.97412 36458 ft 417 kts 250°
2026-05-06 16:46 41.92363 -43.04377 36429 ft 416 kts 250°
2026-05-06 16:46 41.89773 -43.11311 36446 ft 415 kts 250°
2026-05-06 16:47 41.87203 -43.18178 36460 ft 414 kts 250°
2026-05-06 16:47 41.84602 -43.25118 36674 ft 419 kts 250°
2026-05-06 16:47 41.83291 -43.28606 36966 ft 417 kts 250°
2026-05-06 16:48 41.81987 -43.32063 37308 ft 413 kts 250°
2026-05-06 16:48 41.80690 -43.35493 37750 ft 409 kts 251°
2026-05-06 16:48 41.79408 -43.38886 38052 ft 407 kts 251°
2026-05-06 16:48 41.78144 -43.42231 38267 ft 407 kts 251°
2026-05-06 16:49 41.76864 -43.45619 38378 ft 408 kts 251°
2026-05-06 16:49 41.74292 -43.52421 38458 ft 410 kts 251°
2026-05-06 16:50 41.71708 -43.59222 38430 ft 406 kts 251°
2026-05-06 16:50 41.69150 -43.65932 38453 ft 402 kts 251°
2026-05-06 16:51 41.66631 -43.72535 38468 ft 400 kts 251°
2026-05-06 16:51 41.64096 -43.79167 38475 ft 400 kts 251°
2026-05-06 16:52 41.61559 -43.85791 38470 ft 401 kts 251°
2026-05-06 16:52 41.59010 -43.92430 38461 ft 402 kts 250°
2026-05-06 16:53 41.56450 -43.99082 38472 ft 403 kts 250°
2026-05-06 16:53 41.53888 -44.05721 38471 ft 405 kts 250°
2026-05-06 16:54 41.51299 -44.12415 38471 ft 406 kts 250°
2026-05-06 16:54 41.48702 -44.19112 38467 ft 406 kts 250°
2026-05-06 16:55 41.46102 -44.25801 38477 ft 405 kts 250°
2026-05-06 16:55 41.43501 -44.32478 38481 ft 405 kts 250°
2026-05-06 16:56 41.40906 -44.39123 38482 ft 404 kts 250°
2026-05-06 16:56 41.38331 -44.45703 38467 ft 402 kts 250°
2026-05-06 16:57 41.35750 -44.52284 38476 ft 400 kts 250°
2026-05-06 16:57 41.33171 -44.58847 38479 ft 399 kts 250°
2026-05-06 16:58 41.30598 -44.65381 38479 ft 398 kts 250°
2026-05-06 16:58 41.28031 -44.71883 38473 ft 396 kts 250°
2026-05-06 16:59 41.25466 -44.78367 38479 ft 395 kts 250°
2026-05-06 16:59 41.22903 -44.84830 38479 ft 395 kts 250°
2026-05-06 17:00 41.20356 -44.91242 38479 ft 395 kts 250°
2026-05-06 17:00 41.17792 -44.97680 38484 ft 394 kts 250°
2026-05-06 17:01 41.15225 -45.04114 38488 ft 394 kts 250°
2026-05-06 17:01 41.12648 -45.10557 38482 ft 395 kts 250°
2026-05-06 17:02 41.10067 -45.16998 38482 ft 395 kts 250°
2026-05-06 17:02 41.07495 -45.23397 38476 ft 395 kts 250°
2026-05-06 17:03 41.04913 -45.29810 38481 ft 394 kts 250°
2026-05-06 17:03 41.02330 -45.36212 38481 ft 393 kts 250°
2026-05-06 17:04 40.99750 -45.42593 38486 ft 392 kts 250°
2026-05-06 17:04 40.97190 -45.48910 38479 ft 391 kts 250°
2026-05-06 17:05 40.94617 -45.55245 38481 ft 390 kts 250°
2026-05-06 17:05 40.92052 -45.61549 38481 ft 389 kts 250°
2026-05-06 17:06 40.89484 -45.67847 38482 ft 388 kts 250°
2026-05-06 17:06 40.86941 -45.74072 38476 ft 387 kts 250°
2026-05-06 17:07 40.84380 -45.80327 38478 ft 386 kts 249°
2026-05-06 17:07 40.81821 -45.86564 38482 ft 386 kts 249°
2026-05-06 17:08 40.79254 -45.92807 38482 ft 387 kts 249°
2026-05-06 17:08 40.76682 -45.99052 38480 ft 387 kts 249°
2026-05-06 17:09 40.74115 -46.05268 38483 ft 388 kts 249°
2026-05-06 17:09 40.71522 -46.11536 38483 ft 389 kts 249°
2026-05-06 17:10 40.68939 -46.17765 38483 ft 390 kts 249°
2026-05-06 17:10 40.66332 -46.24041 38475 ft 390 kts 248°
2026-05-06 17:11 40.63730 -46.30288 38482 ft 391 kts 248°
2026-05-06 17:11 40.61109 -46.36570 38480 ft 391 kts 248°
2026-05-06 17:12 40.58484 -46.42849 38477 ft 392 kts 248°
2026-05-06 17:12 40.55851 -46.49133 38466 ft 392 kts 248°
2026-05-06 17:13 40.53219 -46.55401 38479 ft 392 kts 248°
2026-05-06 17:13 40.50597 -46.61632 38477 ft 392 kts 248°
2026-05-06 17:14 40.47953 -46.67905 38477 ft 392 kts 248°
2026-05-06 17:14 40.45308 -46.74166 38466 ft 392 kts 247°
2026-05-06 17:15 40.42659 -46.80424 38475 ft 392 kts 247°
2026-05-06 17:15 40.40452 -46.85627 38476 ft 392 kts 247°
2026-05-06 17:16 40.37362 -46.92898 38477 ft 392 kts 247°
2026-05-06 17:16 40.34697 -46.99156 38467 ft 392 kts 247°
2026-05-06 17:17 40.32482 -47.04344 38471 ft 392 kts 247°
2026-05-06 17:17 40.29811 -47.10593 38472 ft 393 kts 247°
2026-05-06 17:18 40.27138 -47.16831 38469 ft 393 kts 247°
2026-05-06 17:18 40.24459 -47.23072 38453 ft 393 kts 246°
2026-05-06 17:19 40.21777 -47.29307 38469 ft 393 kts 246°
2026-05-06 17:19 40.19109 -47.35498 38469 ft 393 kts 246°
2026-05-06 17:20 40.16421 -47.41723 38471 ft 393 kts 246°
2026-05-06 17:20 40.13729 -47.47941 38466 ft 393 kts 246°
2026-05-06 17:21 40.11025 -47.54176 38467 ft 393 kts 246°
2026-05-06 17:21 40.08324 -47.60392 38464 ft 393 kts 246°
2026-05-06 17:22 40.05622 -47.66596 38465 ft 393 kts 246°
2026-05-06 17:22 40.02913 -47.72807 38454 ft 393 kts 246°
2026-05-06 17:23 40.00220 -47.78966 38450 ft 393 kts 246°
2026-05-06 17:23 39.97506 -47.85161 38451 ft 393 kts 246°
2026-05-06 17:24 39.94782 -47.91365 38451 ft 393 kts 246°
2026-05-06 17:24 39.92076 -47.97519 38469 ft 393 kts 245°
2026-05-06 17:25 39.89353 -48.03697 38467 ft 393 kts 245°
2026-05-06 17:25 39.86628 -48.09869 38455 ft 393 kts 245°
2026-05-06 17:26 39.83900 -48.16034 38447 ft 393 kts 245°
2026-05-06 17:26 39.81171 -48.22190 38448 ft 392 kts 245°
2026-05-06 17:27 39.78439 -48.28339 38449 ft 392 kts 245°
2026-05-06 17:27 39.75715 -48.34459 38440 ft 392 kts 245°
2026-05-06 17:28 39.72975 -48.40603 38454 ft 392 kts 245°
2026-05-06 17:28 39.70231 -48.46744 38439 ft 393 kts 244°
2026-05-06 17:29 39.67483 -48.52882 38453 ft 393 kts 244°
2026-05-06 17:29 39.64744 -48.58988 38442 ft 394 kts 244°
2026-05-06 17:30 39.61982 -48.65133 38430 ft 394 kts 244°
2026-05-06 17:30 39.59205 -48.71297 38433 ft 395 kts 244°
2026-05-06 17:31 39.56429 -48.77449 38439 ft 395 kts 244°
2026-05-06 17:31 39.53644 -48.83608 38438 ft 396 kts 244°
2026-05-06 17:32 39.50871 -48.89730 38427 ft 396 kts 243°
2026-05-06 17:32 39.48074 -48.95890 38433 ft 397 kts 243°
2026-05-06 17:33 39.45273 -49.02049 38430 ft 397 kts 243°
2026-05-06 17:33 39.42466 -49.08208 38432 ft 397 kts 243°
2026-05-06 17:34 39.39654 -49.14368 38418 ft 397 kts 243°
2026-05-06 17:34 39.36841 -49.20516 38424 ft 397 kts 243°
2026-05-06 17:35 39.34036 -49.26635 38427 ft 398 kts 243°
2026-05-06 17:35 39.31205 -49.32799 38421 ft 398 kts 243°
2026-05-06 17:36 39.26967 -49.42003 38417 ft 399 kts 243°
2026-05-06 17:36 39.24126 -49.48161 38419 ft 399 kts 243°
2026-05-06 17:37 39.21276 -49.54324 38420 ft 400 kts 243°
2026-05-06 17:37 39.18417 -49.60496 38402 ft 400 kts 243°
2026-05-06 17:38 39.15553 -49.66665 38416 ft 400 kts 243°
2026-05-06 17:38 39.12705 -49.72790 38412 ft 401 kts 243°
2026-05-06 17:39 39.09837 -49.78948 38408 ft 401 kts 242°
2026-05-06 17:39 39.06957 -49.85118 38407 ft 401 kts 242°
2026-05-06 17:40 39.04092 -49.91251 38411 ft 401 kts 242°
2026-05-06 17:40 39.01212 -49.97400 38406 ft 401 kts 242°
2026-05-06 17:41 38.98266 -50.03524 38390 ft 402 kts 240°
2026-05-06 17:41 38.95146 -50.09492 38396 ft 403 kts 239°
2026-05-06 17:42 38.92022 -50.15409 38396 ft 402 kts 239°
2026-05-06 17:42 38.88907 -50.21374 38394 ft 402 kts 239°
2026-05-06 17:43 38.85790 -50.27369 38396 ft 403 kts 239°
2026-05-06 17:43 38.82682 -50.33349 38388 ft 403 kts 239°
2026-05-06 17:44 38.79587 -50.39292 38389 ft 403 kts 239°
2026-05-06 17:44 38.76475 -50.45257 38369 ft 403 kts 239°
2026-05-06 17:45 38.73358 -50.51220 38380 ft 403 kts 239°
2026-05-06 17:45 38.70231 -50.57190 38383 ft 403 kts 239°
2026-05-06 17:46 38.67104 -50.63148 38378 ft 403 kts 239°
2026-05-06 17:46 38.63982 -50.69089 38371 ft 404 kts 239°
2026-05-06 17:47 38.60843 -50.75048 38377 ft 404 kts 238°
2026-05-06 17:47 38.57696 -50.81014 38375 ft 405 kts 238°
2026-05-06 17:48 38.54539 -50.86985 38359 ft 405 kts 238°
2026-05-06 17:48 38.51375 -50.92962 38378 ft 406 kts 238°
2026-05-06 17:49 38.48229 -50.98892 38370 ft 406 kts 238°
2026-05-06 17:49 38.45055 -51.04862 38371 ft 406 kts 238°
2026-05-06 17:50 38.41875 -51.10835 38371 ft 406 kts 238°
2026-05-06 17:50 38.38685 -51.16815 38363 ft 407 kts 238°
2026-05-06 17:51 38.35515 -51.22746 38362 ft 407 kts 238°
2026-05-06 17:51 38.32319 -51.28716 38354 ft 407 kts 238°
2026-05-06 17:52 38.29132 -51.34656 38356 ft 406 kts 238°
2026-05-06 17:52 38.25944 -51.40589 38356 ft 405 kts 238°
2026-05-06 17:53 38.22773 -51.46479 38347 ft 405 kts 238°
2026-05-06 17:53 38.19585 -51.52391 38345 ft 404 kts 238°
2026-05-06 17:54 38.16399 -51.58288 38348 ft 404 kts 237°
2026-05-06 17:54 38.13218 -51.64164 38347 ft 403 kts 237°
2026-05-06 17:55 38.10054 -51.70000 38330 ft 403 kts 237°
2026-05-06 17:55 38.06871 -51.75860 38341 ft 402 kts 237°
2026-05-06 17:56 38.03694 -51.81698 38360 ft 402 kts 237°
2026-05-06 17:56 38.00505 -51.87548 38347 ft 403 kts 237°
2026-05-06 17:57 37.97315 -51.93389 38338 ft 403 kts 237°
2026-05-06 17:57 37.94119 -51.99232 38338 ft 403 kts 237°
2026-05-06 17:58 37.90921 -52.05067 38344 ft 403 kts 237°
2026-05-06 17:58 37.87739 -52.10864 38318 ft 403 kts 237°
2026-05-06 17:59 37.84535 -52.16690 38325 ft 403 kts 237°
2026-05-06 17:59 37.81328 -52.22511 38323 ft 403 kts 236°
2026-05-06 18:00 37.78118 -52.28327 38310 ft 403 kts 237°
2026-05-06 18:00 37.74905 -52.34139 38319 ft 403 kts 236°
2026-05-06 18:01 37.72230 -52.38969 38310 ft 403 kts 236°
2026-05-06 18:01 37.68490 -52.45711 38308 ft 403 kts 236°
2026-05-06 18:02 37.65270 -52.51505 38293 ft 403 kts 236°
2026-05-06 18:02 37.62569 -52.56356 38306 ft 403 kts 236°
2026-05-06 18:03 37.59364 -52.62105 38292 ft 403 kts 236°
2026-05-06 18:03 37.56134 -52.67889 38285 ft 403 kts 236°
2026-05-06 18:04 37.52896 -52.73675 38287 ft 403 kts 236°
2026-05-06 18:04 37.49658 -52.79453 38300 ft 404 kts 235°
2026-05-06 18:05 37.46414 -52.85231 38282 ft 404 kts 235°
2026-05-06 18:05 37.43169 -52.91000 38263 ft 404 kts 235°
2026-05-06 18:06 37.39943 -52.96724 38279 ft 404 kts 235°
2026-05-06 18:06 37.36688 -53.02493 38287 ft 404 kts 235°
2026-05-06 18:07 37.33427 -53.08260 38279 ft 405 kts 235°
2026-05-06 18:07 37.30161 -53.14027 38263 ft 405 kts 235°
2026-05-06 18:08 37.26885 -53.19802 38266 ft 405 kts 235°
2026-05-06 18:08 37.23629 -53.25531 38279 ft 406 kts 234°
2026-05-06 18:09 37.20340 -53.31309 38256 ft 407 kts 234°
2026-05-06 18:09 37.17043 -53.37091 38258 ft 407 kts 234°
2026-05-06 18:10 37.13769 -53.42824 38258 ft 407 kts 234°
2026-05-06 18:10 37.10467 -53.48593 38252 ft 407 kts 234°
2026-05-06 18:11 37.07159 -53.54365 38246 ft 407 kts 234°
2026-05-06 18:11 37.03857 -53.60117 38247 ft 407 kts 234°
2026-05-06 18:12 37.00543 -53.65879 38242 ft 406 kts 234°
2026-05-06 18:12 36.97260 -53.71576 38241 ft 406 kts 234°
2026-05-06 18:13 36.93952 -53.77308 38235 ft 406 kts 234°
2026-05-06 18:13 36.90650 -53.83019 38240 ft 405 kts 234°
2026-05-06 18:14 36.87336 -53.88742 38240 ft 406 kts 234°
2026-05-06 18:14 36.84028 -53.94445 38234 ft 406 kts 234°
2026-05-06 18:15 36.80714 -54.00150 38243 ft 406 kts 233°
2026-05-06 18:15 36.77410 -54.05826 38231 ft 407 kts 233°
2026-05-06 18:16 36.74076 -54.11545 38229 ft 408 kts 233°
2026-05-06 18:16 36.70733 -54.17268 38213 ft 408 kts 233°
2026-05-06 18:17 36.67388 -54.22988 38221 ft 408 kts 233°
2026-05-06 18:17 36.64039 -54.28703 38220 ft 408 kts 233°
2026-05-06 18:18 36.60712 -54.34371 38212 ft 408 kts 233°
2026-05-06 18:18 36.57354 -54.40083 38207 ft 407 kts 233°
2026-05-06 18:19 36.54008 -54.45765 38207 ft 407 kts 233°
2026-05-06 18:19 36.50661 -54.51439 38211 ft 407 kts 232°
2026-05-06 18:20 36.47303 -54.57120 38199 ft 407 kts 232°
2026-05-06 18:20 36.43949 -54.62787 38196 ft 407 kts 232°
2026-05-06 18:21 36.40616 -54.68409 38195 ft 407 kts 232°
2026-05-06 18:21 36.37254 -54.74071 38193 ft 407 kts 232°
2026-05-06 18:22 36.33874 -54.79754 38195 ft 408 kts 232°
2026-05-06 18:22 36.30517 -54.85388 38182 ft 409 kts 232°
2026-05-06 18:23 36.27129 -54.91065 38181 ft 409 kts 232°
2026-05-06 18:23 36.23735 -54.96743 38179 ft 410 kts 232°
2026-05-06 18:24 36.20335 -55.02421 38178 ft 411 kts 231°
2026-05-06 18:24 36.16915 -55.08121 38171 ft 412 kts 231°
2026-05-06 18:25 36.13484 -55.13833 38166 ft 413 kts 231°
2026-05-06 18:25 36.10069 -55.19509 38165 ft 414 kts 231°
2026-05-06 18:26 36.06625 -55.25222 38156 ft 414 kts 231°
2026-05-06 18:26 36.03172 -55.30941 38151 ft 415 kts 231°
2026-05-06 18:27 35.99705 -55.36673 38156 ft 415 kts 231°
2026-05-06 18:27 35.96242 -55.42391 38151 ft 416 kts 231°
2026-05-06 18:28 35.92775 -55.48104 38136 ft 415 kts 231°
2026-05-06 18:28 35.89329 -55.53776 38149 ft 415 kts 230°
2026-05-06 18:29 35.85861 -55.59472 38139 ft 415 kts 230°
2026-05-06 18:29 35.82390 -55.65163 38137 ft 415 kts 230°
2026-05-06 18:30 35.78918 -55.70847 38119 ft 415 kts 230°
2026-05-06 18:30 35.75441 -55.76531 38132 ft 415 kts 230°
2026-05-06 18:31 35.71964 -55.82203 38134 ft 415 kts 230°
2026-05-06 18:31 35.68480 -55.87879 38130 ft 416 kts 230°
2026-05-06 18:32 35.65003 -55.93535 38111 ft 416 kts 230°
2026-05-06 18:32 35.61510 -55.99207 38123 ft 416 kts 230°
2026-05-06 18:33 35.58020 -56.04866 38124 ft 416 kts 230°
2026-05-06 18:33 35.54519 -56.10533 38117 ft 416 kts 230°
2026-05-06 18:34 35.51033 -56.16165 38116 ft 416 kts 230°
2026-05-06 18:34 35.47531 -56.21815 38112 ft 416 kts 230°
2026-05-06 18:35 35.44044 -56.27431 38106 ft 416 kts 230°
2026-05-06 18:35 35.40535 -56.33074 38122 ft 416 kts 229°
2026-05-06 18:36 35.37037 -56.38690 38102 ft 415 kts 229°
2026-05-06 18:36 35.33529 -56.44313 38100 ft 415 kts 229°
2026-05-06 18:37 35.30612 -56.48981 38091 ft 414 kts 229°
2026-05-06 18:37 35.26511 -56.55535 38090 ft 414 kts 229°
2026-05-06 18:38 35.23004 -56.61131 38096 ft 414 kts 229°
2026-05-06 18:38 35.19499 -56.66712 38083 ft 413 kts 229°
2026-05-06 18:39 35.16016 -56.72249 38079 ft 413 kts 229°
2026-05-06 18:40 35.10756 -56.80597 38079 ft 413 kts 229°
2026-05-06 18:40 35.07249 -56.86151 38087 ft 413 kts 228°
2026-05-06 18:41 35.03740 -56.91700 38071 ft 413 kts 228°
2026-05-06 18:41 35.00227 -56.97248 38064 ft 412 kts 228°
2026-05-06 18:42 34.96736 -57.02750 38062 ft 412 kts 228°
2026-05-06 18:42 34.93230 -57.08269 38063 ft 412 kts 228°
2026-05-06 18:43 34.89713 -57.13796 38073 ft 412 kts 227°
2026-05-06 18:43 34.86200 -57.19307 38039 ft 412 kts 227°
2026-05-06 18:44 34.82682 -57.24819 38038 ft 412 kts 227°
2026-05-06 18:44 34.79192 -57.30277 38049 ft 411 kts 227°
2026-05-06 18:45 34.75678 -57.35765 38051 ft 411 kts 227°
2026-05-06 18:45 34.72167 -57.41239 38040 ft 411 kts 227°
2026-05-06 18:46 34.68651 -57.46715 38043 ft 410 kts 227°
2026-05-06 18:46 34.65136 -57.52178 38037 ft 410 kts 227°
2026-05-06 18:47 34.61621 -57.57633 38037 ft 410 kts 227°
2026-05-06 18:47 34.58128 -57.63046 38035 ft 410 kts 227°
2026-05-06 18:48 34.54608 -57.68493 38045 ft 410 kts 226°
2026-05-06 18:48 34.51667 -57.73036 38030 ft 410 kts 226°
2026-05-06 18:49 34.47565 -57.79366 38029 ft 410 kts 227°
2026-05-06 18:49 34.44033 -57.84807 38028 ft 410 kts 227°
2026-05-06 18:50 34.41097 -57.89322 38028 ft 410 kts 226°
2026-05-06 18:50 34.37567 -57.94745 38039 ft 410 kts 226°
2026-05-06 18:51 34.34031 -58.00166 38027 ft 410 kts 226°
2026-05-06 18:51 34.30507 -58.05563 38020 ft 410 kts 226°
2026-05-06 18:52 34.26955 -58.10994 38024 ft 411 kts 226°
2026-05-06 18:52 34.23407 -58.16411 38019 ft 411 kts 226°
2026-05-06 18:53 34.19874 -58.21796 38040 ft 411 kts 226°
2026-05-06 18:53 34.16316 -58.27211 38016 ft 411 kts 226°
2026-05-06 18:54 34.12757 -58.32620 38012 ft 411 kts 226°
2026-05-06 18:54 34.09200 -58.38018 38009 ft 411 kts 226°
2026-05-06 18:55 34.05661 -58.43381 38009 ft 411 kts 226°
2026-05-06 18:55 34.02100 -58.48768 38027 ft 411 kts 226°
2026-05-06 18:56 33.98520 -58.54173 38014 ft 412 kts 226°
2026-05-06 18:56 33.94935 -58.59583 38014 ft 413 kts 226°
2026-05-06 18:57 33.91341 -58.64995 38014 ft 414 kts 225°
2026-05-06 18:57 33.87754 -58.70391 38011 ft 415 kts 226°
2026-05-06 18:58 33.84138 -58.75821 38008 ft 416 kts 225°
2026-05-06 18:58 33.80512 -58.81258 38009 ft 416 kts 225°
2026-05-06 18:59 33.76885 -58.86688 38008 ft 416 kts 225°
2026-05-06 18:59 33.73286 -58.92070 38009 ft 415 kts 225°
2026-05-06 19:00 33.69654 -58.97492 38031 ft 415 kts 225°
2026-05-06 19:00 33.66036 -59.02884 38025 ft 413 kts 225°
2026-05-06 19:01 33.62429 -59.08250 38024 ft 416 kts 226°
2026-05-06 19:01 33.58775 -59.13678 38013 ft 420 kts 226°
2026-05-06 19:02 33.55096 -59.19137 38017 ft 422 kts 226°
2026-05-06 19:02 33.51398 -59.24619 38016 ft 423 kts 226°
2026-05-06 19:03 33.47711 -59.30075 38009 ft 424 kts 226°
2026-05-06 19:03 33.43992 -59.35568 38015 ft 426 kts 226°
2026-05-06 19:04 33.40245 -59.41094 38008 ft 427 kts 226°
2026-05-06 19:04 33.36515 -59.46588 38015 ft 427 kts 226°
2026-05-06 19:05 33.32763 -59.52107 38008 ft 428 kts 226°
2026-05-06 19:05 33.29006 -59.57626 38012 ft 428 kts 226°
2026-05-06 19:06 33.25240 -59.63148 38006 ft 429 kts 227°
2026-05-06 19:06 33.21464 -59.68677 38020 ft 430 kts 227°
2026-05-06 19:07 33.17697 -59.74185 38017 ft 431 kts 227°
2026-05-06 19:07 33.13894 -59.79740 38014 ft 432 kts 227°
2026-05-06 19:08 33.10089 -59.85291 38014 ft 432 kts 227°
2026-05-06 19:08 33.06275 -59.90848 38024 ft 433 kts 227°
2026-05-06 19:09 33.02456 -59.96412 38017 ft 434 kts 227°
2026-05-06 19:09 32.98616 -60.01964 38015 ft 434 kts 227°
2026-05-06 19:10 32.94752 -60.07438 38015 ft 435 kts 227°
2026-05-06 19:10 32.90850 -60.12947 38016 ft 435 kts 227°
2026-05-06 19:11 32.86951 -60.18465 38029 ft 435 kts 228°
2026-05-06 19:11 32.83045 -60.23996 38021 ft 437 kts 228°
2026-05-06 19:12 32.79130 -60.29535 38018 ft 438 kts 228°
2026-05-06 19:12 32.75202 -60.35085 38021 ft 439 kts 228°
2026-05-06 19:13 32.71294 -60.40597 38025 ft 439 kts 228°
2026-05-06 19:13 32.67341 -60.46166 38041 ft 441 kts 228°
2026-05-06 19:14 32.63369 -60.51753 38042 ft 444 kts 229°
2026-05-06 19:14 32.59364 -60.57375 38015 ft 447 kts 229°
2026-05-06 19:15 32.55373 -60.62971 38016 ft 446 kts 229°
2026-05-06 19:15 32.51358 -60.68592 38028 ft 445 kts 229°
2026-05-06 19:16 32.47358 -60.74184 38031 ft 444 kts 229°
2026-05-06 19:16 32.43379 -60.79736 38032 ft 445 kts 230°
2026-05-06 19:17 32.39366 -60.85328 38032 ft 446 kts 230°
2026-05-06 19:17 32.35340 -60.90931 38042 ft 447 kts 230°
2026-05-06 19:18 32.31308 -60.96533 38033 ft 447 kts 230°
2026-05-06 19:18 32.27266 -61.02140 38045 ft 448 kts 230°
2026-05-06 19:19 32.23237 -61.07723 38047 ft 450 kts 230°
2026-05-06 19:19 32.19160 -61.13361 38040 ft 451 kts 231°
2026-05-06 19:20 32.15076 -61.19003 38052 ft 452 kts 231°
2026-05-06 19:20 32.10979 -61.24651 38052 ft 453 kts 231°
2026-05-06 19:21 32.06874 -61.30305 38056 ft 454 kts 231°
2026-05-06 19:21 32.02787 -61.35922 38047 ft 454 kts 231°
2026-05-06 19:22 31.98668 -61.41577 38062 ft 454 kts 231°
2026-05-06 19:22 31.94548 -61.47224 38062 ft 455 kts 231°
2026-05-06 19:23 31.90411 -61.52887 38065 ft 455 kts 231°
2026-05-06 19:23 31.86305 -61.58497 38073 ft 455 kts 231°
2026-05-06 19:24 31.82171 -61.64139 38071 ft 454 kts 232°
2026-05-06 19:24 31.78047 -61.69757 38079 ft 454 kts 231°
2026-05-06 19:25 31.73920 -61.75372 38077 ft 453 kts 231°
2026-05-06 19:25 31.69803 -61.80965 38080 ft 452 kts 231°
2026-05-06 19:26 31.65686 -61.86549 38074 ft 451 kts 232°
2026-05-06 19:26 31.61602 -61.92081 38085 ft 451 kts 232°
2026-05-06 19:27 31.57482 -61.97652 38085 ft 451 kts 232°
2026-05-06 19:27 31.53351 -62.03233 38093 ft 453 kts 232°
2026-05-06 19:28 31.49240 -62.08777 38064 ft 454 kts 233°
2026-05-06 19:28 31.45090 -62.14366 38089 ft 455 kts 232°
2026-05-06 19:29 31.40928 -62.19962 38100 ft 455 kts 232°
2026-05-06 19:29 31.36757 -62.25561 38089 ft 456 kts 233°
2026-05-06 19:30 31.32606 -62.31126 38102 ft 457 kts 233°
2026-05-06 19:30 31.28423 -62.36726 38100 ft 457 kts 233°
2026-05-06 19:31 31.24235 -62.42323 38104 ft 457 kts 233°
2026-05-06 19:31 31.17981 -62.50667 38103 ft 456 kts 233°
2026-05-06 19:32 31.13797 -62.56239 38100 ft 456 kts 233°
2026-05-06 19:32 31.09600 -62.61821 38101 ft 457 kts 233°
2026-05-06 19:33 31.05402 -62.67396 38103 ft 457 kts 233°
2026-05-06 19:33 31.01197 -62.72973 38112 ft 458 kts 233°
2026-05-06 19:34 30.97010 -62.78517 38113 ft 458 kts 233°
2026-05-06 19:34 30.92794 -62.84090 38104 ft 458 kts 234°
2026-05-06 19:35 30.88570 -62.89667 38109 ft 458 kts 233°
2026-05-06 19:35 30.84353 -62.95227 38117 ft 459 kts 233°
2026-05-06 19:36 30.80144 -63.00768 38118 ft 459 kts 233°
2026-05-06 19:36 30.75910 -63.06335 38120 ft 460 kts 233°
2026-05-06 19:37 30.71661 -63.11912 38083 ft 460 kts 233°
2026-05-06 19:37 30.68134 -63.16535 38103 ft 459 kts 233°
2026-05-06 19:38 30.63192 -63.23004 38107 ft 460 kts 233°
2026-05-06 19:38 30.59647 -63.27638 38127 ft 460 kts 233°
2026-05-06 19:39 30.55394 -63.33190 38129 ft 460 kts 233°
2026-05-06 19:39 30.51138 -63.38739 38127 ft 460 kts 233°
2026-05-06 19:40 30.46895 -63.44262 38108 ft 460 kts 233°
2026-05-06 19:40 30.42629 -63.49807 38130 ft 461 kts 233°
2026-05-06 19:41 30.38347 -63.55367 38122 ft 462 kts 233°
2026-05-06 19:41 30.34064 -63.60918 38118 ft 462 kts 233°
2026-05-06 19:42 30.29806 -63.66430 38117 ft 461 kts 233°
2026-05-06 19:42 30.25516 -63.71974 38124 ft 461 kts 233°
2026-05-06 19:43 30.21235 -63.77499 38119 ft 461 kts 233°
2026-05-06 19:43 30.16943 -63.83031 38127 ft 461 kts 233°
2026-05-06 19:44 30.12680 -63.88519 38107 ft 462 kts 233°
2026-05-06 19:44 30.08382 -63.94042 38126 ft 461 kts 233°
2026-05-06 19:45 30.04090 -63.99551 38130 ft 461 kts 233°
2026-05-06 19:45 29.99799 -64.05050 38120 ft 461 kts 233°
2026-05-06 19:46 29.95504 -64.10548 38130 ft 461 kts 233°
2026-05-06 19:46 29.91241 -64.15997 38127 ft 461 kts 233°
2026-05-06 19:47 29.86940 -64.21487 38132 ft 461 kts 233°
2026-05-06 19:47 29.82642 -64.26965 38133 ft 461 kts 233°
2026-05-06 19:48 29.78341 -64.32438 38129 ft 461 kts 233°
2026-05-06 19:48 29.74039 -64.37907 38120 ft 461 kts 233°
2026-05-06 19:49 29.69733 -64.43373 38122 ft 460 kts 233°
2026-05-06 19:49 29.65449 -64.48802 38132 ft 460 kts 233°
2026-05-06 19:50 29.61129 -64.54272 38137 ft 461 kts 233°
2026-05-06 19:50 29.56810 -64.59732 38133 ft 461 kts 233°
2026-05-06 19:51 29.52510 -64.65159 38133 ft 462 kts 233°
2026-05-06 19:51 29.48177 -64.70621 38133 ft 461 kts 232°
2026-05-06 19:52 29.43872 -64.76041 38138 ft 461 kts 232°
2026-05-06 19:52 29.39547 -64.81477 38138 ft 461 kts 232°
2026-05-06 19:53 29.35224 -64.86905 38136 ft 460 kts 232°
2026-05-06 19:53 29.30898 -64.92329 38111 ft 460 kts 232°
2026-05-06 19:54 29.26583 -64.97731 38129 ft 459 kts 232°
2026-05-06 19:54 29.22293 -65.03095 38135 ft 459 kts 232°
2026-05-06 19:55 29.17971 -65.08493 38137 ft 460 kts 232°
2026-05-06 19:55 29.13637 -65.13899 38137 ft 460 kts 232°
2026-05-06 19:56 29.09330 -65.19263 38119 ft 461 kts 232°
2026-05-06 19:56 29.04983 -65.24669 38137 ft 461 kts 232°
2026-05-06 19:57 29.00641 -65.30061 38129 ft 461 kts 232°
2026-05-06 19:57 28.96309 -65.35435 38135 ft 462 kts 232°
2026-05-06 19:58 28.91957 -65.40826 38137 ft 462 kts 232°
2026-05-06 19:58 28.87582 -65.46238 38121 ft 462 kts 232°
2026-05-06 19:59 28.83240 -65.51602 38135 ft 462 kts 232°
2026-05-06 19:59 28.78873 -65.56991 38136 ft 462 kts 232°
2026-05-06 20:00 28.74501 -65.62377 38132 ft 462 kts 232°
2026-05-06 20:00 28.70131 -65.67754 38149 ft 463 kts 232°
2026-05-06 20:01 28.65751 -65.73138 38124 ft 463 kts 232°
2026-05-06 20:01 28.61395 -65.78484 38138 ft 463 kts 232°
2026-05-06 20:02 28.57009 -65.83860 38134 ft 463 kts 231°
2026-05-06 20:02 28.52621 -65.89231 38134 ft 463 kts 231°
2026-05-06 20:03 28.48230 -65.94598 38122 ft 463 kts 232°
2026-05-06 20:03 28.43835 -65.99964 38138 ft 464 kts 231°
2026-05-06 20:04 28.39460 -66.05299 38141 ft 465 kts 231°
2026-05-06 20:04 28.35042 -66.10679 38133 ft 465 kts 231°
2026-05-06 20:05 28.30621 -66.16055 38131 ft 466 kts 231°
2026-05-06 20:05 28.26219 -66.21401 38133 ft 466 kts 231°
2026-05-06 20:06 28.21783 -66.26782 38107 ft 466 kts 231°
2026-05-06 20:06 28.17341 -66.32162 38127 ft 467 kts 231°
2026-05-06 20:07 28.12921 -66.37510 38134 ft 467 kts 231°
2026-05-06 20:07 28.08466 -66.42892 38131 ft 468 kts 231°
2026-05-06 20:08 28.04004 -66.48277 38130 ft 469 kts 231°
2026-05-06 20:08 27.99533 -66.53664 38119 ft 469 kts 231°
2026-05-06 20:09 27.95092 -66.59009 38114 ft 469 kts 232°
2026-05-06 20:09 27.90618 -66.64386 38132 ft 470 kts 231°
2026-05-06 20:10 27.86134 -66.69768 38129 ft 471 kts 231°
2026-05-06 20:10 27.81634 -66.75164 38129 ft 472 kts 231°
2026-05-06 20:11 27.77124 -66.80564 38132 ft 474 kts 231°
2026-05-06 20:11 27.74851 -66.83285 38255 ft 476 kts 231°
2026-05-06 20:11 27.72579 -66.86001 38557 ft 475 kts 231°
2026-05-06 20:12 27.70312 -66.88707 38889 ft 473 kts 231°
2026-05-06 20:12 27.68080 -66.91370 39038 ft 475 kts 232°
2026-05-06 20:12 27.63521 -66.96809 39315 ft 478 kts 232°
2026-05-06 20:13 27.61238 -66.99529 39548 ft 477 kts 232°
2026-05-06 20:13 27.58961 -67.02238 39792 ft 475 kts 232°
2026-05-06 20:13 27.56680 -67.04951 39996 ft 475 kts 232°
2026-05-06 20:13 27.54401 -67.07662 40039 ft 477 kts 232°
2026-05-06 20:14 27.49815 -67.13112 40115 ft 478 kts 232°
2026-05-06 20:14 27.45246 -67.18531 40121 ft 476 kts 232°
2026-05-06 20:15 27.40696 -67.23921 40105 ft 474 kts 232°
2026-05-06 20:15 27.36190 -67.29254 40122 ft 473 kts 232°
2026-05-06 20:16 27.31655 -67.34615 40102 ft 473 kts 232°
2026-05-06 20:16 27.27105 -67.39988 40120 ft 475 kts 232°
2026-05-06 20:17 27.22536 -67.45376 40123 ft 476 kts 232°
2026-05-06 20:17 27.17950 -67.50777 40118 ft 478 kts 232°
2026-05-06 20:18 27.13376 -67.56156 40107 ft 480 kts 232°
2026-05-06 20:18 27.08754 -67.61584 40112 ft 481 kts 232°
2026-05-06 20:19 27.04117 -67.67023 40116 ft 482 kts 232°
2026-05-06 20:19 26.99471 -67.72465 40116 ft 483 kts 232°
2026-05-06 20:20 26.94826 -67.77899 40114 ft 483 kts 232°
2026-05-06 20:20 26.90179 -67.83328 40116 ft 482 kts 232°
2026-05-06 20:21 26.85534 -67.88749 40100 ft 482 kts 232°
2026-05-06 20:21 26.80916 -67.94129 40108 ft 481 kts 232°
2026-05-06 20:22 26.76277 -67.99530 40111 ft 481 kts 232°
2026-05-06 20:22 26.71630 -68.04933 40114 ft 481 kts 232°
2026-05-06 20:23 26.66991 -68.10320 40112 ft 480 kts 232°
2026-05-06 20:23 26.62347 -68.15706 40110 ft 480 kts 232°
2026-05-06 20:24 26.57731 -68.21052 40109 ft 480 kts 232°
2026-05-06 20:24 26.53081 -68.26431 40114 ft 481 kts 232°
2026-05-06 20:25 26.48428 -68.31808 40111 ft 481 kts 232°
2026-05-06 20:25 26.43760 -68.37196 40113 ft 482 kts 232°
2026-05-06 20:26 26.39095 -68.42572 40108 ft 483 kts 232°
2026-05-06 20:26 26.35207 -68.47048 40099 ft 483 kts 232°
2026-05-06 20:27 26.29766 -68.53303 40096 ft 483 kts 232°
2026-05-06 20:27 26.25081 -68.58682 40108 ft 484 kts 232°
2026-05-06 20:28 26.21177 -68.63161 40114 ft 484 kts 232°
2026-05-06 20:28 26.16475 -68.68548 40109 ft 485 kts 232°
2026-05-06 20:29 26.11767 -68.73935 40112 ft 485 kts 232°
2026-05-06 20:29 26.07050 -68.79326 40110 ft 485 kts 232°
2026-05-06 20:30 26.00006 -68.87364 40098 ft 485 kts 232°
2026-05-06 20:31 25.95286 -68.92741 40107 ft 485 kts 232°
2026-05-06 20:31 25.90564 -68.98114 40108 ft 485 kts 232°
2026-05-06 20:32 25.85845 -69.03479 40107 ft 485 kts 232°
2026-05-06 20:32 25.81124 -69.08838 40119 ft 485 kts 232°
2026-05-06 20:33 25.76424 -69.14167 40112 ft 486 kts 232°
2026-05-06 20:33 25.71690 -69.19529 40091 ft 486 kts 232°
2026-05-06 20:34 25.66947 -69.24894 40105 ft 486 kts 232°
2026-05-06 20:34 25.62229 -69.30225 40113 ft 487 kts 232°
2026-05-06 20:35 25.57477 -69.35587 40108 ft 488 kts 232°
2026-05-06 20:35 25.52718 -69.40952 40113 ft 488 kts 232°
2026-05-06 20:36 25.47954 -69.46316 40106 ft 489 kts 232°
2026-05-06 20:36 25.43181 -69.51682 40107 ft 489 kts 232°
2026-05-06 20:37 25.38430 -69.57018 40094 ft 489 kts 232°
2026-05-06 20:37 25.33641 -69.62391 40109 ft 490 kts 232°
2026-05-06 20:38 25.28849 -69.67760 40110 ft 491 kts 232°
2026-05-06 20:38 25.24079 -69.73101 40107 ft 491 kts 232°
2026-05-06 20:39 25.19271 -69.78478 40103 ft 492 kts 232°
2026-05-06 20:39 25.14449 -69.83864 40108 ft 492 kts 232°
2026-05-06 20:40 25.09647 -69.89224 40097 ft 493 kts 232°
2026-05-06 20:40 25.04831 -69.94600 40108 ft 493 kts 232°
2026-05-06 20:41 24.99992 -69.99989 40103 ft 494 kts 232°
2026-05-06 20:41 24.95116 -70.05366 40105 ft 495 kts 232°
2026-05-06 20:42 24.90262 -70.10693 40101 ft 495 kts 232°
2026-05-06 20:42 24.85376 -70.16066 40094 ft 496 kts 232°
2026-05-06 20:43 24.80498 -70.21435 40083 ft 496 kts 232°
2026-05-06 20:43 24.75610 -70.26811 40099 ft 497 kts 232°
2026-05-06 20:44 24.70718 -70.32185 40102 ft 497 kts 232°
2026-05-06 20:44 24.65846 -70.37531 40099 ft 498 kts 232°
2026-05-06 20:45 24.60909 -70.42940 40086 ft 498 kts 232°
2026-05-06 20:45 24.56027 -70.48283 40098 ft 498 kts 232°
2026-05-06 20:46 24.51102 -70.53667 40095 ft 499 kts 232°
2026-05-06 20:46 24.46183 -70.59037 40092 ft 498 kts 232°
2026-05-06 20:47 24.41264 -70.64402 40088 ft 498 kts 232°
2026-05-06 20:47 24.36349 -70.69756 40076 ft 498 kts 232°
2026-05-06 20:48 24.31429 -70.75110 40094 ft 498 kts 232°
2026-05-06 20:48 24.26500 -70.80467 40085 ft 498 kts 232°
2026-05-06 20:49 24.21608 -70.85778 40089 ft 498 kts 232°
2026-05-06 20:49 24.16677 -70.91125 40080 ft 498 kts 232°
2026-05-06 20:50 24.11746 -70.96466 40083 ft 498 kts 232°
2026-05-06 20:50 24.06817 -71.01798 40080 ft 498 kts 232°
2026-05-06 20:51 24.01922 -71.07089 40084 ft 498 kts 232°
2026-05-06 20:51 23.96986 -71.12417 40085 ft 499 kts 232°
2026-05-06 20:52 23.92042 -71.17749 40082 ft 499 kts 232°
2026-05-06 20:52 23.87086 -71.23087 40079 ft 500 kts 232°
2026-05-06 20:53 23.82131 -71.28418 40071 ft 500 kts 231°
2026-05-06 20:53 23.77198 -71.33719 40082 ft 500 kts 231°
2026-05-06 20:54 23.72226 -71.39056 40080 ft 500 kts 231°
2026-05-06 20:54 23.67260 -71.44381 40082 ft 501 kts 231°
2026-05-06 20:55 23.62285 -71.49711 40080 ft 501 kts 231°
2026-05-06 20:55 23.57310 -71.55036 40079 ft 501 kts 231°
2026-05-06 20:56 23.52359 -71.60329 40086 ft 501 kts 231°
2026-05-06 20:56 23.47381 -71.65647 40079 ft 500 kts 231°
2026-05-06 20:57 23.42404 -71.70964 40061 ft 500 kts 231°
2026-05-06 20:57 23.37430 -71.76272 40076 ft 500 kts 231°
2026-05-06 20:58 23.32498 -71.81539 40085 ft 500 kts 232°
2026-05-06 20:58 23.27559 -71.86861 40066 ft 499 kts 231°
2026-05-06 20:59 23.22627 -71.92192 40062 ft 499 kts 231°
2026-05-06 20:59 23.17699 -71.97512 40064 ft 499 kts 231°
2026-05-06 21:00 23.12769 -72.02826 40072 ft 499 kts 231°
2026-05-06 21:00 23.07833 -72.08139 40071 ft 499 kts 231°
2026-05-06 21:01 23.02920 -72.13421 40057 ft 499 kts 231°
2026-05-06 21:01 22.97967 -72.18740 40064 ft 500 kts 231°
2026-05-06 21:02 22.93022 -72.24046 40063 ft 500 kts 231°
2026-05-06 21:02 22.88067 -72.29355 40059 ft 500 kts 231°
2026-05-06 21:03 22.83151 -72.34617 40064 ft 500 kts 231°
2026-05-06 21:03 22.78199 -72.39913 40059 ft 500 kts 231°
2026-05-06 21:04 22.73240 -72.45210 40056 ft 500 kts 231°
2026-05-06 21:04 22.68284 -72.50498 40063 ft 500 kts 231°
2026-05-06 21:05 22.63313 -72.55796 40058 ft 500 kts 231°
2026-05-06 21:05 22.58383 -72.61045 40044 ft 500 kts 231°
2026-05-06 21:06 22.53422 -72.66321 40051 ft 499 kts 231°
2026-05-06 21:06 22.48461 -72.71592 40060 ft 499 kts 231°
2026-05-06 21:07 22.43496 -72.76862 40048 ft 499 kts 230°
2026-05-06 21:07 22.38559 -72.82096 40056 ft 499 kts 230°
2026-05-06 21:08 22.33590 -72.87360 40047 ft 500 kts 230°
2026-05-06 21:08 22.28621 -72.92616 40046 ft 500 kts 230°
2026-05-06 21:09 22.23646 -72.97875 40053 ft 500 kts 230°
2026-05-06 21:09 22.18705 -73.03091 40034 ft 500 kts 230°
2026-05-06 21:10 22.13727 -73.08340 40050 ft 500 kts 230°
2026-05-06 21:10 22.08758 -73.13575 40055 ft 499 kts 230°
2026-05-06 21:11 22.03785 -73.18810 40041 ft 500 kts 230°
2026-05-06 21:11 21.98804 -73.24046 40050 ft 500 kts 230°
2026-05-06 21:12 21.93830 -73.29271 40049 ft 499 kts 230°
2026-05-06 21:12 21.88848 -73.34498 40032 ft 499 kts 230°
2026-05-06 21:13 21.83900 -73.39684 40042 ft 499 kts 230°
2026-05-06 21:13 21.78919 -73.44900 40045 ft 499 kts 230°
2026-05-06 21:14 21.73962 -73.50084 40041 ft 499 kts 230°
2026-05-06 21:14 21.68971 -73.55300 40041 ft 499 kts 230°
2026-05-06 21:15 21.64823 -73.59630 40045 ft 500 kts 230°
2026-05-06 21:15 21.59828 -73.64840 40035 ft 500 kts 229°
2026-05-06 21:16 21.54826 -73.70052 40037 ft 500 kts 229°
2026-05-06 21:16 21.49828 -73.75254 40039 ft 500 kts 229°
2026-05-06 21:17 21.44855 -73.80425 40038 ft 500 kts 229°
2026-05-06 21:17 21.39854 -73.85620 40036 ft 500 kts 229°
2026-05-06 21:18 21.34844 -73.90819 40038 ft 500 kts 229°
2026-05-06 21:18 21.29832 -73.96015 40031 ft 500 kts 229°
2026-05-06 21:19 21.24854 -74.01170 40031 ft 500 kts 229°
2026-05-06 21:19 21.19842 -74.06355 40036 ft 500 kts 229°
2026-05-06 21:20 21.14823 -74.11544 40032 ft 500 kts 229°
2026-05-06 21:20 21.09840 -74.16689 40032 ft 500 kts 229°
2026-05-06 21:21 21.04825 -74.21862 40033 ft 500 kts 229°
2026-05-06 21:21 20.99801 -74.27040 40029 ft 500 kts 229°
2026-05-06 21:22 20.94813 -74.32175 40034 ft 500 kts 229°
2026-05-06 21:22 20.89796 -74.37336 40032 ft 500 kts 229°
2026-05-06 21:23 20.84766 -74.42505 40029 ft 500 kts 229°
2026-05-06 21:23 20.79751 -74.47652 40035 ft 500 kts 229°
2026-05-06 21:24 20.74728 -74.52803 40032 ft 500 kts 229°
2026-05-06 21:24 20.69715 -74.57940 40037 ft 499 kts 229°
2026-05-06 21:25 20.64696 -74.63077 40034 ft 499 kts 229°
2026-05-06 21:25 20.59675 -74.68211 40039 ft 499 kts 229°
2026-05-06 21:26 20.54690 -74.73304 40047 ft 499 kts 229°
2026-05-06 21:26 20.49674 -74.78424 40049 ft 499 kts 229°
2026-05-06 21:27 20.44642 -74.83556 40036 ft 500 kts 228°
2026-05-06 21:27 20.39614 -74.88677 40050 ft 500 kts 228°
2026-05-06 21:28 20.34581 -74.93799 40046 ft 500 kts 228°
2026-05-06 21:28 20.29573 -74.98891 40051 ft 501 kts 228°
2026-05-06 21:29 20.24520 -75.04023 40056 ft 500 kts 228°
2026-05-06 21:29 20.19482 -75.09137 40047 ft 499 kts 228°
2026-05-06 21:30 20.14447 -75.14241 40039 ft 499 kts 228°
2026-05-06 21:30 20.09458 -75.19295 40039 ft 498 kts 228°
2026-05-06 21:31 20.04438 -75.24375 40037 ft 498 kts 228°
2026-05-06 21:31 19.99421 -75.29448 40038 ft 498 kts 228°
2026-05-06 21:32 19.94398 -75.34522 40041 ft 498 kts 228°
2026-05-06 21:32 19.86862 -75.42126 40043 ft 497 kts 228°
2026-05-06 21:33 19.81845 -75.47183 40040 ft 497 kts 227°
2026-05-06 21:33 19.76860 -75.52202 40039 ft 496 kts 227°
2026-05-06 21:34 19.71848 -75.57244 40035 ft 495 kts 227°
2026-05-06 21:34 19.66850 -75.62269 40035 ft 495 kts 227°
2026-05-06 21:35 19.61840 -75.67300 40031 ft 495 kts 227°
2026-05-06 21:35 19.56843 -75.72314 40033 ft 495 kts 227°
2026-05-06 21:36 19.51861 -75.77309 40034 ft 494 kts 227°
2026-05-06 21:36 19.46860 -75.82319 40029 ft 494 kts 227°
2026-05-06 21:37 19.41869 -75.87313 40024 ft 493 kts 227°
2026-05-06 21:37 19.36881 -75.92301 40027 ft 492 kts 227°
2026-05-06 21:38 19.31931 -75.97247 40027 ft 492 kts 227°
2026-05-06 21:38 19.26953 -76.02218 40027 ft 492 kts 227°
2026-05-06 21:39 19.21969 -76.07192 40023 ft 492 kts 227°
2026-05-06 21:39 19.16984 -76.12163 40029 ft 492 kts 227°
2026-05-06 21:40 19.12005 -76.17129 40023 ft 492 kts 226°
2026-05-06 21:40 19.07054 -76.22062 40020 ft 492 kts 226°
2026-05-06 21:41 19.01802 -76.26723 40032 ft 496 kts 217°
2026-05-06 21:41 18.95773 -76.30328 40016 ft 501 kts 206°
2026-05-06 21:42 18.89383 -76.33252 40019 ft 501 kts 205°
2026-05-06 21:42 18.82984 -76.36145 40014 ft 500 kts 205°
2026-05-06 21:43 18.76601 -76.39084 40013 ft 500 kts 206°
2026-05-06 21:43 18.70223 -76.42049 40010 ft 500 kts 206°
2026-05-06 21:44 18.63895 -76.44993 40007 ft 500 kts 206°
2026-05-06 21:44 18.57522 -76.47953 40006 ft 500 kts 205°
2026-05-06 21:45 18.51140 -76.50913 40012 ft 500 kts 205°
2026-05-06 21:45 18.44766 -76.53866 39995 ft 499 kts 205°
2026-05-06 21:46 18.38449 -76.56791 40004 ft 499 kts 205°
2026-05-06 21:46 18.32102 -76.59727 39998 ft 498 kts 205°
2026-05-06 21:47 18.25763 -76.62659 40002 ft 497 kts 205°
2026-05-06 21:47 18.19424 -76.65588 40004 ft 497 kts 205°
2026-05-06 21:48 18.13085 -76.68517 40008 ft 497 kts 205°
2026-05-06 21:48 18.06737 -76.71451 39977 ft 498 kts 205°
2026-05-06 21:49 18.00439 -76.74357 39976 ft 498 kts 205°
2026-05-06 21:49 17.94179 -76.77474 39997 ft 494 kts 212°
2026-05-06 21:50 17.88586 -76.81558 39989 ft 490 kts 222°
2026-05-06 21:50 17.83382 -76.86203 39995 ft 490 kts 223°
2026-05-06 21:51 17.78197 -76.90852 39982 ft 490 kts 222°
2026-05-06 21:51 17.73004 -76.95479 39988 ft 490 kts 222°
2026-05-06 21:52 17.67793 -77.00097 39982 ft 489 kts 222°
2026-05-06 21:52 17.62584 -77.04705 39977 ft 489 kts 222°
2026-05-06 21:53 17.57411 -77.09278 39977 ft 489 kts 222°
2026-05-06 21:53 17.52208 -77.13876 39986 ft 489 kts 222°
2026-05-06 21:54 17.46996 -77.18478 39983 ft 489 kts 222°
2026-05-06 21:54 17.41782 -77.23078 39974 ft 489 kts 221°
2026-05-06 21:55 17.36578 -77.27667 39989 ft 489 kts 222°
2026-05-06 21:55 17.31406 -77.32223 39976 ft 489 kts 221°
2026-05-06 21:56 17.26189 -77.36816 39985 ft 488 kts 221°
2026-05-06 21:56 17.20980 -77.41397 39984 ft 489 kts 221°
2026-05-06 21:57 17.15811 -77.45940 39983 ft 489 kts 221°
2026-05-06 21:57 17.10597 -77.50520 39981 ft 489 kts 221°
2026-05-06 21:58 17.05381 -77.55098 39976 ft 489 kts 221°
2026-05-06 21:58 17.00161 -77.59676 39975 ft 489 kts 221°
2026-05-06 21:59 16.94979 -77.64217 39976 ft 489 kts 221°
2026-05-06 21:59 16.89766 -77.68781 39976 ft 488 kts 221°
2026-05-06 22:00 16.84556 -77.73340 39982 ft 488 kts 221°
2026-05-06 22:00 16.79347 -77.77894 39977 ft 488 kts 221°
2026-05-06 22:01 16.74132 -77.82450 39983 ft 488 kts 221°
2026-05-06 22:01 16.68952 -77.86973 39967 ft 488 kts 221°
2026-05-06 22:02 16.63743 -77.91517 39972 ft 488 kts 221°
2026-05-06 22:02 16.59396 -77.95306 39965 ft 488 kts 221°
2026-05-06 22:03 16.54185 -77.99847 39970 ft 488 kts 221°
2026-05-06 22:03 16.48971 -78.04387 39970 ft 488 kts 220°
2026-05-06 22:04 16.43750 -78.08928 39969 ft 488 kts 220°
2026-05-06 22:04 16.38571 -78.13430 39964 ft 487 kts 221°
2026-05-06 22:05 16.33364 -78.17955 39963 ft 487 kts 220°
2026-05-06 22:05 16.28153 -78.22478 39960 ft 487 kts 220°
2026-05-06 22:06 16.22936 -78.27003 39967 ft 487 kts 220°
2026-05-06 22:06 16.17751 -78.31498 39966 ft 488 kts 220°
2026-05-06 22:07 16.12536 -78.36015 39965 ft 488 kts 220°
2026-05-06 22:07 16.07309 -78.40540 39958 ft 488 kts 220°
2026-05-06 22:08 16.02085 -78.45060 39958 ft 488 kts 220°
2026-05-06 22:08 15.96860 -78.49576 39962 ft 488 kts 220°
2026-05-06 22:09 15.91666 -78.54063 39956 ft 488 kts 220°
2026-05-06 22:09 15.86447 -78.58568 39950 ft 487 kts 220°
2026-05-06 22:10 15.81222 -78.63076 39956 ft 487 kts 220°
2026-05-06 22:10 15.76007 -78.67571 39956 ft 487 kts 219°
2026-05-06 22:11 15.70819 -78.72041 39949 ft 487 kts 220°
2026-05-06 22:11 15.65592 -78.76541 39952 ft 487 kts 219°
2026-05-06 22:12 15.60405 -78.81003 39951 ft 487 kts 219°
2026-05-06 22:12 15.55180 -78.85496 39951 ft 487 kts 220°
2026-05-06 22:13 15.49957 -78.89984 39948 ft 487 kts 219°
2026-05-06 22:13 15.44743 -78.94460 39950 ft 486 kts 220°
2026-05-06 22:14 15.39556 -78.98912 39950 ft 486 kts 219°
2026-05-06 22:14 15.34352 -79.03374 39948 ft 486 kts 219°
2026-05-06 22:15 15.29130 -79.07850 39950 ft 486 kts 219°
2026-05-06 22:15 15.23914 -79.12319 39946 ft 486 kts 219°
2026-05-06 22:16 15.18696 -79.16786 39941 ft 486 kts 219°
2026-05-06 22:16 15.13523 -79.21214 39936 ft 486 kts 219°
2026-05-06 22:17 15.08315 -79.25673 39940 ft 485 kts 219°
2026-05-06 22:17 15.03111 -79.30127 39942 ft 485 kts 220°
2026-05-06 22:18 14.98006 -79.34693 39944 ft 484 kts 223°
2026-05-06 22:18 14.93152 -79.39522 39943 ft 484 kts 224°
2026-05-06 22:19 14.88311 -79.44380 39941 ft 484 kts 225°
2026-05-06 22:19 14.83502 -79.49191 39943 ft 484 kts 224°
2026-05-06 22:20 14.78650 -79.54029 39945 ft 484 kts 224°
2026-05-06 22:20 14.73795 -79.58863 39941 ft 484 kts 224°
2026-05-06 22:21 14.68938 -79.63694 39941 ft 484 kts 224°
2026-05-06 22:21 14.64090 -79.68514 39944 ft 483 kts 224°
2026-05-06 22:22 14.59263 -79.73311 39946 ft 483 kts 224°
2026-05-06 22:22 14.54408 -79.78132 39937 ft 484 kts 225°
2026-05-06 22:23 14.49545 -79.82959 39937 ft 484 kts 224°
2026-05-06 22:23 14.44692 -79.87771 39935 ft 484 kts 224°
2026-05-06 22:24 14.39864 -79.92556 39931 ft 483 kts 225°
2026-05-06 22:24 14.35011 -79.97363 39927 ft 483 kts 225°
2026-05-06 22:25 14.30168 -80.02182 39930 ft 483 kts 224°
2026-05-06 22:25 14.25336 -80.06950 39929 ft 483 kts 224°
2026-05-06 22:26 14.20460 -80.11728 39931 ft 484 kts 224°
2026-05-06 22:26 14.15597 -80.16523 39924 ft 484 kts 224°
2026-05-06 22:27 14.10743 -80.21321 39923 ft 483 kts 224°
2026-05-06 22:27 14.05894 -80.26110 39924 ft 482 kts 225°
2026-05-06 22:28 14.01045 -80.30895 39919 ft 482 kts 225°
2026-05-06 22:28 13.96246 -80.35625 39928 ft 480 kts 224°
2026-05-06 22:29 13.91416 -80.40383 39925 ft 480 kts 225°
2026-05-06 22:29 13.86587 -80.45136 39929 ft 480 kts 224°
2026-05-06 22:30 13.81761 -80.49885 39927 ft 480 kts 225°
2026-05-06 22:30 13.76922 -80.54644 39914 ft 481 kts 225°
2026-05-06 22:31 13.72085 -80.59397 39926 ft 480 kts 225°
2026-05-06 22:31 13.67269 -80.64125 39917 ft 481 kts 224°
2026-05-06 22:32 13.62429 -80.68875 39926 ft 479 kts 224°
2026-05-06 22:32 13.57636 -80.73577 39915 ft 478 kts 224°
2026-05-06 22:33 13.52826 -80.78293 39914 ft 477 kts 224°
2026-05-06 22:33 13.48024 -80.82997 39924 ft 476 kts 224°
2026-05-06 22:34 13.43235 -80.87687 39922 ft 476 kts 225°
2026-05-06 22:34 13.38440 -80.92380 39913 ft 476 kts 224°
2026-05-06 22:35 13.33645 -80.97071 39912 ft 476 kts 224°
2026-05-06 22:35 13.28855 -81.01753 39921 ft 474 kts 225°
2026-05-06 22:36 13.24113 -81.06386 39924 ft 472 kts 224°
2026-05-06 22:36 13.19351 -81.11036 39928 ft 470 kts 224°
2026-05-06 22:37 13.14620 -81.15652 39910 ft 468 kts 225°
2026-05-06 22:37 13.09904 -81.20252 39915 ft 467 kts 225°
2026-05-06 22:38 13.05231 -81.24808 39924 ft 466 kts 225°
2026-05-06 22:38 13.00532 -81.29388 39902 ft 466 kts 224°
2026-05-06 22:39 12.95825 -81.33973 39914 ft 465 kts 225°
2026-05-06 22:39 12.91133 -81.38541 39909 ft 465 kts 224°
2026-05-06 22:40 12.86473 -81.43076 39909 ft 464 kts 224°
2026-05-06 22:40 12.81791 -81.47630 39903 ft 464 kts 224°
2026-05-06 22:41 12.74785 -81.54443 39911 ft 463 kts 225°
2026-05-06 22:42 12.70110 -81.58988 39907 ft 463 kts 224°
2026-05-06 22:42 12.65433 -81.63538 39905 ft 464 kts 224°
2026-05-06 22:43 12.60747 -81.68099 39908 ft 464 kts 224°
2026-05-06 22:43 12.56106 -81.72651 39903 ft 465 kts 225°
2026-05-06 22:44 12.51555 -81.77369 39912 ft 465 kts 226°
2026-05-06 22:44 12.47030 -81.82123 39906 ft 466 kts 227°
2026-05-06 22:45 12.42491 -81.86871 39919 ft 466 kts 226°
2026-05-06 22:45 12.37975 -81.91575 39911 ft 466 kts 226°
2026-05-06 22:46 12.33430 -81.96301 39912 ft 466 kts 226°
2026-05-06 22:46 12.28881 -82.01029 39903 ft 465 kts 225°
2026-05-06 22:47 12.24340 -82.05746 39907 ft 465 kts 226°
2026-05-06 22:47 12.19801 -82.10459 39897 ft 465 kts 226°
2026-05-06 22:48 12.15259 -82.15173 39903 ft 465 kts 226°
2026-05-06 22:48 12.10715 -82.19888 39904 ft 465 kts 226°
2026-05-06 22:49 12.06170 -82.24601 39906 ft 465 kts 226°
2026-05-06 22:49 12.06125 -82.24647 39903 ft 465 kts 226°
2026-05-06 23:02 12.03914 -82.26939 39903 ft 466 kts 226°
2026-05-06 23:02 11.99362 -82.31656 39901 ft 466 kts 226°
2026-05-06 23:03 11.94805 -82.36377 39897 ft 466 kts 226°
2026-05-06 23:03 11.90268 -82.41074 39907 ft 466 kts 225°
2026-05-06 23:04 11.85718 -82.45784 39892 ft 466 kts 225°
2026-05-06 23:04 11.81161 -82.50498 39918 ft 465 kts 225°
2026-05-06 23:05 11.76635 -82.55179 39917 ft 465 kts 225°
2026-05-06 23:05 11.72087 -82.59884 39902 ft 465 kts 225°
2026-05-06 23:06 11.67546 -82.64583 39910 ft 465 kts 225°
2026-05-06 23:06 11.63004 -82.69288 39848 ft 462 kts 225°
2026-05-06 23:06 11.60777 -82.71582 39426 ft 459 kts 225°
2026-05-06 23:07 11.58521 -82.73859 39037 ft 453 kts 223°
2026-05-06 23:07 11.56224 -82.76036 38623 ft 449 kts 222°
2026-05-06 23:07 11.53913 -82.78165 38127 ft 445 kts 222°
2026-05-06 23:07 11.51614 -82.80275 37673 ft 441 kts 222°
2026-05-06 23:08 11.49352 -82.82361 37245 ft 436 kts 222°
2026-05-06 23:08 11.47120 -82.84434 36825 ft 432 kts 223°
2026-05-06 23:08 11.44917 -82.86492 36417 ft 428 kts 223°
2026-05-06 23:08 11.42735 -82.88540 36014 ft 424 kts 223°
2026-05-06 23:09 11.40579 -82.90567 35620 ft 420 kts 223°
2026-05-06 23:09 11.38442 -82.92580 35207 ft 417 kts 223°
2026-05-06 23:09 11.36317 -82.94580 34805 ft 414 kts 223°
2026-05-06 23:09 11.34235 -82.96540 34387 ft 412 kts 223°
2026-05-06 23:10 11.32130 -82.98520 33965 ft 410 kts 223°
2026-05-06 23:10 11.30039 -83.00488 33509 ft 408 kts 222°
2026-05-06 23:10 11.27953 -83.02450 33089 ft 408 kts 222°
2026-05-06 23:10 11.25851 -83.04426 32683 ft 413 kts 222°
2026-05-06 23:11 11.23713 -83.06436 32269 ft 425 kts 221°
2026-05-06 23:11 11.21523 -83.08495 31834 ft 427 kts 222°
2026-05-06 23:11 11.19372 -83.10518 31395 ft 424 kts 222°
2026-05-06 23:11 11.17208 -83.12551 30958 ft 422 kts 221°
2026-05-06 23:12 11.15055 -83.14573 30518 ft 420 kts 221°
2026-05-06 23:12 11.12909 -83.16588 30094 ft 419 kts 221°
2026-05-06 23:12 11.10771 -83.18595 29594 ft 417 kts 221°
2026-05-06 23:12 11.08639 -83.20595 29111 ft 416 kts 221°
2026-05-06 23:13 11.06516 -83.22587 28655 ft 414 kts 221°
2026-05-06 23:13 11.04397 -83.24575 28201 ft 413 kts 221°
2026-05-06 23:13 11.02289 -83.26552 27759 ft 411 kts 221°
2026-05-06 23:13 11.00185 -83.28525 27325 ft 410 kts 220°
2026-05-06 23:14 10.98111 -83.30469 26903 ft 409 kts 220°
2026-05-06 23:14 10.96016 -83.32433 26470 ft 409 kts 220°
2026-05-06 23:14 10.93925 -83.34393 26050 ft 409 kts 220°
2026-05-06 23:14 10.91826 -83.36360 25616 ft 409 kts 220°
2026-05-06 23:15 10.89731 -83.38323 25182 ft 410 kts 220°
2026-05-06 23:15 10.87632 -83.40289 24751 ft 410 kts 220°
2026-05-06 23:15 10.85526 -83.42262 24325 ft 411 kts 220°
2026-05-06 23:15 10.83443 -83.44212 23900 ft 412 kts 220°
2026-05-06 23:16 10.81329 -83.46192 23482 ft 413 kts 220°
2026-05-06 23:16 10.79207 -83.48178 22974 ft 414 kts 220°
2026-05-06 23:16 10.77089 -83.50162 22523 ft 413 kts 220°
2026-05-06 23:16 10.74975 -83.52141 22082 ft 412 kts 220°
2026-05-06 23:17 10.72866 -83.54116 21652 ft 411 kts 220°
2026-05-06 23:17 10.70762 -83.56084 21187 ft 410 kts 220°
2026-05-06 23:17 10.68663 -83.58048 20765 ft 410 kts 220°
2026-05-06 23:17 10.66566 -83.60009 20329 ft 409 kts 220°
2026-05-06 23:18 10.64474 -83.61964 19884 ft 409 kts 220°
2026-05-06 23:18 10.62407 -83.63897 19434 ft 408 kts 220°
2026-05-06 23:18 10.60314 -83.65852 18984 ft 408 kts 220°
2026-05-06 23:18 10.58223 -83.67807 18523 ft 408 kts 220°
2026-05-06 23:19 10.56127 -83.69765 18047 ft 407 kts 220°
2026-05-06 23:19 10.54063 -83.71693 17554 ft 406 kts 220°
2026-05-06 23:19 10.51988 -83.73631 17087 ft 404 kts 219°
2026-05-06 23:19 10.49924 -83.75559 16640 ft 402 kts 219°
2026-05-06 23:20 10.47866 -83.77480 16182 ft 400 kts 219°
2026-05-06 23:20 10.45819 -83.79391 15727 ft 399 kts 219°
2026-05-06 23:20 10.43770 -83.81302 15280 ft 397 kts 219°
2026-05-06 23:20 10.41740 -83.83196 14832 ft 395 kts 219°
2026-05-06 23:21 10.39741 -83.85061 14383 ft 394 kts 219°
2026-05-06 23:21 10.37721 -83.86945 13929 ft 393 kts 219°
2026-05-06 23:21 10.35706 -83.88824 13470 ft 392 kts 219°
2026-05-06 23:21 10.33705 -83.90689 13007 ft 389 kts 219°
2026-05-06 23:22 10.31713 -83.92546 12568 ft 386 kts 219°
2026-05-06 23:22 10.29741 -83.94386 12132 ft 383 kts 220°
2026-05-06 23:22 10.27793 -83.96217 11714 ft 380 kts 220°
2026-05-06 23:22 10.25858 -83.98033 11277 ft 377 kts 220°
2026-05-06 23:23 10.23926 -83.99832 10852 ft 376 kts 220°
2026-05-06 23:23 10.21995 -84.01617 10416 ft 374 kts 220°
2026-05-06 23:23 10.20107 -84.03370 10106 ft 369 kts 220°
2026-05-06 23:23 10.18236 -84.05103 9974 ft 358 kts 220°
2026-05-06 23:24 10.16419 -84.06797 9753 ft 350 kts 220°
2026-05-06 23:24 10.14648 -84.08447 9598 ft 340 kts 220°
2026-05-06 23:24 10.12933 -84.10045 9521 ft 328 kts 220°
2026-05-06 23:24 10.11279 -84.11585 9392 ft 316 kts 220°
2026-05-06 23:25 10.09689 -84.13065 9284 ft 304 kts 220°
2026-05-06 23:25 10.08161 -84.14478 9118 ft 296 kts 219°
2026-05-06 23:25 10.06656 -84.15858 8937 ft 288 kts 219°
2026-05-06 23:25 10.05335 -84.17332 8523 ft 280 kts 238°
2026-05-06 23:26 10.04743 -84.19152 8355 ft 267 kts 261°
2026-05-06 23:26 10.04626 -84.20984 8303 ft 254 kts 266°
2026-05-06 23:26 10.04592 -84.22722 8131 ft 239 kts 266°
2026-05-06 23:26 10.04573 -84.24370 7868 ft 229 kts 267°
2026-05-06 23:27 10.04587 -84.25968 7610 ft 226 kts 271°
2026-05-06 23:27 10.04609 -84.27556 7365 ft 224 kts 270°
2026-05-06 23:27 10.04579 -84.29167 7402 ft 247 kts 268°
2026-05-06 23:27 10.04526 -84.31042 7449 ft 281 kts 268°
2026-05-06 23:28 10.04466 -84.33053 7434 ft 286 kts 268°
2026-05-06 23:28 10.04372 -84.35038 7413 ft 277 kts 261°
2026-05-06 23:28 10.03698 -84.36848 7405 ft 275 kts 233°
2026-05-06 23:28 10.02317 -84.38090 7316 ft 261 kts 204°
2026-05-06 23:29 10.00628 -84.38531 7298 ft 242 kts 182°
2026-05-06 23:29 9.98950 -84.38687 7301 ft 241 kts 182°
2026-05-06 23:29 9.97291 -84.38748 7286 ft 233 kts 167°
2026-05-06 23:29 9.95898 -84.38112 7230 ft 218 kts 134°
2026-05-06 23:30 9.95115 -84.36845 6971 ft 212 kts 99°
2026-05-06 23:30 9.95006 -84.35394 6542 ft 203 kts 89°
2026-05-06 23:30 9.94982 -84.33973 6130 ft 197 kts 87°
2026-05-06 23:30 9.95001 -84.32610 5703 ft 195 kts 85°
2026-05-06 23:31 9.95026 -84.31271 5400 ft 183 kts 85°
2026-05-06 23:31 9.95030 -84.30037 5028 ft 169 kts 85°
2026-05-06 23:31 9.95054 -84.28869 4680 ft 164 kts 81°
2026-05-06 23:31 9.95125 -84.27718 4199 ft 161 kts 73°
2026-05-06 23:32 9.95593 -84.26770 3900 ft 142 kts 40°
2026-05-06 23:32 9.96334 -84.26092 4040 ft 148 kts 25°
2026-05-06 23:32 9.97332 -84.26025 4133 ft 138 kts 356°
2026-05-06 23:32 9.98319 -84.26102 4384 ft 143 kts 339°
2026-05-06 23:33 9.99183 -84.26592 4158 ft 145 kts 314°
2026-05-06 23:33 9.99411 -84.27537 3736 ft 149 kts 246°
2026-05-06 23:33 9.98565 -84.27939 3549 ft 150 kts 153°
2026-05-06 23:33 9.98206 -84.27051 3571 ft 143 kts 83°
2026-05-06 23:34 9.98053 -84.26018 3979 ft 162 kts 106°
2026-05-06 23:34 9.97931 -84.24889 3477 ft 155 kts 76°
2026-05-06 23:34 9.98243 -84.23892 3291 ft 149 kts 69°
2026-05-06 23:34 9.98629 -84.22913 3182 ft 149 kts 67°
2026-05-06 23:35 9.98978 -84.22004 2937 ft 125 kts 69°
2026-05-06 23:35 9.99203 -84.21387 2971 ft 47 kts 68°
2026-05-06 23:35 9.99238 -84.21295 2975 ft 13 kts 71°
2026-05-06 23:35 9.99275 -84.21193 2980 ft 16 kts 51°
2026-05-06 23:36 9.99371 -84.21144 2984 ft 16 kts 49°
2026-05-06 23:36 9.99425 -84.21044 2989 ft 16 kts 61°
2026-05-06 23:36 9.99470 -84.20941 2994 ft 16 kts 66°
2026-05-06 23:36 9.99494 -84.20834 3000 ft 16 kts 64°
2026-05-06 23:37 9.99544 -84.20733 3004 ft 16 kts 63°
2026-05-06 23:37 9.99584 -84.20627 3008 ft 16 kts 72°
2026-05-06 23:37 9.99619 -84.20522 3013 ft 16 kts 70°
2026-05-06 23:37 9.99663 -84.20452 3016 ft 11 kts 23°
2026-05-06 23:38 9.99695 -84.20453 3016 ft 0 kts 344°